Wetterdaten: Sonntag, 27.12.2020
Datum Zeit Temp. Aussen Temp. o. S. Temp +5cm Feuchte Auss Luftdruck Regen Sonnenschein Regendauer Solar Windben Empfang
27.12.2020 00:00 4,8 C 4,4 C 1,6 C 85 % 1009,2 hPa 0,0 l/m 0 min 0 min 0 W/m 35,4 km/h (5 Bft) 97,83 %
27.12.2020 00:02 4,8 C 4,4 C 1,6 C 85 % 1009,2 hPa 0,0 l/m 0 min 0 min 0 W/m 41,8 km/h (6 Bft) 97,30 %
27.12.2020 00:04 4,8 C 4,4 C 1,6 C 85 % 1009,1 hPa 0,0 l/m 0 min 0 min 0 W/m 35,4 km/h (5 Bft) 97,87 %
27.12.2020 00:08 4,8 C 4,4 C 1,6 C 84 % 1008,9 hPa 0,0 l/m 0 min 0 min 0 W/m 45,1 km/h (6 Bft) 98,94 %
27.12.2020 00:10 4,8 C 4,4 C 1,6 C 84 % 1008,8 hPa 0,0 l/m 0 min 0 min 0 W/m 41,8 km/h (6 Bft) 97,87 %
27.12.2020 00:12 4,8 C 4,4 C 1,6 C 84 % 1008,8 hPa 0,0 l/m 0 min 0 min 0 W/m 35,4 km/h (5 Bft) 97,83 %
27.12.2020 00:14 4,8 C 4,4 C 1,6 C 84 % 1008,7 hPa 0,0 l/m 0 min 0 min 0 W/m 32,2 km/h (5 Bft) 97,87 %
27.12.2020 00:16 4,8 C 4,4 C 1,6 C 84 % 1008,6 hPa 0,0 l/m 0 min 0 min 0 W/m 38,6 km/h (5 Bft) 97,87 %
27.12.2020 00:18 4,9 C 4,4 C 1,6 C 85 % 1008,5 hPa 0,0 l/m 0 min 0 min 0 W/m 32,2 km/h (5 Bft) 97,87 %
27.12.2020 00:20 4,8 C 4,4 C 1,6 C 85 % 1008,3 hPa 0,0 l/m 0 min 0 min 0 W/m 35,4 km/h (5 Bft) 95,74 %
27.12.2020 00:22 4,8 C 4,4 C 1,6 C 85 % 1008,4 hPa 0,0 l/m 0 min 0 min 0 W/m 41,8 km/h (6 Bft) 95,74 %
27.12.2020 00:24 4,8 C 4,4 C 1,6 C 85 % 1008,3 hPa 0,0 l/m 0 min 0 min 0 W/m 29,0 km/h (5 Bft) 97,83 %
27.12.2020 00:26 4,8 C 4,4 C 1,6 C 85 % 1008,4 hPa 0,0 l/m 0 min 0 min 0 W/m 35,4 km/h (5 Bft) 95,74 %
27.12.2020 00:28 4,8 C 4,4 C 1,6 C 85 % 1008,3 hPa 0,0 l/m 0 min 0 min 0 W/m 29,0 km/h (5 Bft) 93,62 %
27.12.2020 00:30 4,9 C 4,4 C 1,6 C 85 % 1008,2 hPa 0,0 l/m 0 min 0 min 0 W/m 38,6 km/h (5 Bft) 92,16 %
27.12.2020 00:32 4,9 C 4,4 C 1,6 C 85 % 1008,3 hPa 0,0 l/m 0 min 0 min 0 W/m 29,0 km/h (5 Bft) 97,87 %
27.12.2020 00:34 4,8 C 4,4 C 1,6 C 85 % 1008,1 hPa 0,0 l/m 0 min 0 min 0 W/m 3,2 km/h (1 Bft) 95,65 %
27.12.2020 00:36 4,8 C 4,4 C 1,6 C 85 % 1008,1 hPa 0,0 l/m 0 min 0 min 0 W/m 41,8 km/h (6 Bft) 93,62 %
27.12.2020 00:38 4,8 C 4,4 C 1,6 C 85 % 1008,0 hPa 0,0 l/m 0 min 0 min 0 W/m 22,5 km/h (4 Bft) 93,62 %
27.12.2020 00:40 4,8 C 4,4 C 1,6 C 85 % 1008,0 hPa 0,0 l/m 0 min 0 min 0 W/m 6,4 km/h (2 Bft) 93,62 %
27.12.2020 00:42 4,8 C 4,4 C 1,6 C 85 % 1007,9 hPa 0,0 l/m 0 min 0 min 0 W/m 29,0 km/h (5 Bft) 95,74 %
27.12.2020 00:44 4,8 C 4,4 C 1,6 C 85 % 1007,8 hPa 0,0 l/m 0 min 0 min 0 W/m 41,8 km/h (6 Bft) 93,62 %
27.12.2020 00:46 4,8 C 4,4 C 1,6 C 85 % 1007,7 hPa 0,0 l/m 0 min 0 min 0 W/m 25,7 km/h (4 Bft) 95,65 %
27.12.2020 00:48 4,8 C 4,4 C 1,6 C 85 % 1007,7 hPa 0,0 l/m 0 min 0 min 0 W/m 25,7 km/h (4 Bft) 93,62 %
27.12.2020 00:50 4,8 C 4,4 C 1,6 C 85 % 1007,6 hPa 0,0 l/m 0 min 0 min 0 W/m 48,3 km/h (6 Bft) 93,62 %
27.12.2020 00:52 4,8 C 4,4 C 1,6 C 85 % 1007,3 hPa 0,0 l/m 0 min 0 min 0 W/m 29,0 km/h (5 Bft) 93,62 %
27.12.2020 00:54 4,8 C 4,4 C 1,6 C 85 % 1007,5 hPa 0,0 l/m 0 min 0 min 0 W/m 48,3 km/h (6 Bft) 95,74 %
27.12.2020 00:56 4,8 C 4,4 C 1,6 C 85 % 1007,3 hPa 0,0 l/m 0 min 0 min 0 W/m 32,2 km/h (5 Bft) 95,74 %
27.12.2020 00:58 4,8 C 4,4 C 1,6 C 85 % 1007,2 hPa 0,0 l/m 0 min 0 min 0 W/m 45,1 km/h (6 Bft) 94,74 %
27.12.2020 01:00 4,8 C 4,4 C 1,6 C 85 % 1007,2 hPa 0,0 l/m 0 min 0 min 0 W/m 38,6 km/h (5 Bft) 95,65 %
27.12.2020 01:02 4,8 C 4,4 C 1,6 C 85 % 1007,1 hPa 0,0 l/m 0 min 0 min 0 W/m 48,3 km/h (6 Bft) 94,00 %
27.12.2020 01:04 4,8 C 4,4 C 1,6 C 85 % 1006,9 hPa 0,0 l/m 0 min 0 min 0 W/m 22,5 km/h (4 Bft) 95,74 %
27.12.2020 01:06 4,8 C 4,4 C 1,6 C 85 % 1006,9 hPa 0,0 l/m 0 min 0 min 0 W/m 29,0 km/h (5 Bft) 95,74 %
27.12.2020 01:08 4,8 C 4,4 C 1,6 C 85 % 1006,8 hPa 0,0 l/m 0 min 0 min 0 W/m 45,1 km/h (6 Bft) 89,36 %
27.12.2020 01:10 4,8 C 4,4 C 1,6 C 85 % 1006,7 hPa 0,0 l/m 0 min 0 min 0 W/m 29,0 km/h (5 Bft) 95,65 %
27.12.2020 01:12 4,8 C 4,4 C 1,6 C 85 % 1006,7 hPa 0,0 l/m 0 min 0 min 0 W/m 38,6 km/h (5 Bft) 95,74 %
27.12.2020 01:14 4,8 C 4,4 C 1,6 C 85 % 1006,7 hPa 0,0 l/m 0 min 0 min 0 W/m 32,2 km/h (5 Bft) 97,87 %
27.12.2020 01:16 4,8 C 4,4 C 1,6 C 85 % 1006,6 hPa 0,0 l/m 0 min 0 min 0 W/m 51,5 km/h (7 Bft) 97,87 %
27.12.2020 01:18 4,8 C 4,4 C 1,6 C 85 % 1006,6 hPa 0,0 l/m 0 min 0 min 0 W/m 25,7 km/h (4 Bft) 97,87 %
27.12.2020 01:20 4,8 C 4,4 C 1,6 C 85 % 1006,6 hPa 0,0 l/m 0 min 0 min 0 W/m 41,8 km/h (6 Bft) 97,87 %
27.12.2020 01:22 4,8 C 4,4 C 1,6 C 85 % 1006,5 hPa 0,0 l/m 0 min 0 min 0 W/m 48,3 km/h (6 Bft) 97,83 %
27.12.2020 01:24 4,8 C 4,4 C 1,6 C 85 % 1006,5 hPa 0,0 l/m 0 min 0 min 0 W/m 41,8 km/h (6 Bft) 97,87 %
27.12.2020 01:26 4,8 C 4,4 C 1,6 C 85 % 1006,4 hPa 0,0 l/m 0 min 0 min 0 W/m 35,4 km/h (5 Bft) 100,00 %
27.12.2020 01:28 4,8 C 4,4 C 1,6 C 85 % 1006,3 hPa 0,0 l/m 0 min 0 min 0 W/m 57,9 km/h (7 Bft) 100,00 %
27.12.2020 01:30 4,8 C 4,4 C 1,6 C 85 % 1006,2 hPa 0,0 l/m 0 min 0 min 0 W/m 32,2 km/h (5 Bft) 100,00 %
27.12.2020 01:32 4,8 C 4,4 C 1,6 C 85 % 1006,1 hPa 0,0 l/m 0 min 0 min 0 W/m 41,8 km/h (6 Bft) 100,00 %
27.12.2020 01:34 4,8 C 4,4 C 1,6 C 85 % 1006,0 hPa 0,0 l/m 0 min 0 min 0 W/m 51,5 km/h (7 Bft) 100,00 %
27.12.2020 01:36 4,8 C 4,4 C 1,6 C 84 % 1006,0 hPa 0,0 l/m 0 min 0 min 0 W/m 54,7 km/h (7 Bft) 100,00 %
27.12.2020 01:38 4,8 C 4,4 C 1,6 C 84 % 1005,9 hPa 0,0 l/m 0 min 0 min 0 W/m 51,5 km/h (7 Bft) 100,00 %
27.12.2020 01:40 4,7 C 3,9 C 1,6 C 84 % 1005,8 hPa 0,0 l/m 0 min 0 min 0 W/m 41,8 km/h (6 Bft) 97,87 %
27.12.2020 01:42 4,7 C 3,9 C 1,6 C 84 % 1005,8 hPa 0,0 l/m 0 min 0 min 0 W/m 54,7 km/h (7 Bft) 97,87 %
27.12.2020 01:44 4,7 C 3,9 C 1,1 C 84 % 1005,7 hPa 0,0 l/m 0 min 0 min 0 W/m 32,2 km/h (5 Bft) 100,00 %
27.12.2020 01:46 4,6 C 3,9 C 1,1 C 84 % 1005,7 hPa 0,0 l/m 0 min 0 min 0 W/m 25,7 km/h (4 Bft) 100,00 %
27.12.2020 01:48 4,6 C 3,9 C 1,1 C 84 % 1005,7 hPa 0,0 l/m 0 min 0 min 0 W/m 48,3 km/h (6 Bft) 100,00 %
27.12.2020 01:50 4,6 C 3,9 C 1,1 C 84 % 1005,6 hPa 0,0 l/m 0 min 0 min 0 W/m 48,3 km/h (6 Bft) 100,00 %
27.12.2020 01:52 4,6 C 3,9 C 1,1 C 84 % 1005,7 hPa 0,0 l/m 0 min 0 min 0 W/m 48,3 km/h (6 Bft) 100,00 %
27.12.2020 01:54 4,6 C 3,9 C 1,1 C 84 % 1005,5 hPa 0,0 l/m 0 min 0 min 0 W/m 48,3 km/h (6 Bft) 100,00 %
27.12.2020 01:56 4,6 C 3,9 C 1,1 C 84 % 1005,4 hPa 0,0 l/m 0 min 0 min 0 W/m 38,6 km/h (5 Bft) 100,00 %
27.12.2020 01:58 4,6 C 3,9 C 1,1 C 84 % 1005,5 hPa 0,0 l/m 0 min 0 min 0 W/m 45,1 km/h (6 Bft) 100,00 %
27.12.2020 02:00 4,6 C 3,9 C 1,1 C 84 % 1005,2 hPa 0,0 l/m 0 min 0 min 0 W/m 38,6 km/h (5 Bft) 100,00 %
27.12.2020 02:02 4,6 C 3,9 C 1,1 C 84 % 1005,3 hPa 0,0 l/m 0 min 0 min 0 W/m 35,4 km/h (5 Bft) 100,00 %
27.12.2020 02:04 4,5 C 3,9 C 1,1 C 84 % 1005,2 hPa 0,0 l/m 0 min 0 min 0 W/m 48,3 km/h (6 Bft) 100,00 %
27.12.2020 02:06 4,5 C 3,9 C 1,1 C 84 % 1005,2 hPa 0,0 l/m 0 min 0 min 0 W/m 57,9 km/h (7 Bft) 100,00 %
27.12.2020 02:08 4,5 C 3,9 C 1,1 C 84 % 1005,0 hPa 0,0 l/m 0 min 0 min 0 W/m 38,6 km/h (5 Bft) 100,00 %
27.12.2020 02:10 4,5 C 3,9 C 1,1 C 84 % 1005,1 hPa 0,0 l/m 0 min 0 min 0 W/m 38,6 km/h (5 Bft) 100,00 %
27.12.2020 02:12 4,5 C 3,9 C 1,1 C 84 % 1005,3 hPa 0,0 l/m 0 min 0 min 0 W/m 57,9 km/h (7 Bft) 100,00 %
27.12.2020 02:14 4,5 C 3,9 C 1,1 C 84 % 1005,0 hPa 0,0 l/m 0 min 0 min 0 W/m 29,0 km/h (5 Bft) 100,00 %
27.12.2020 02:16 4,5 C 3,9 C 1,1 C 84 % 1005,0 hPa 0,0 l/m 0 min 0 min 0 W/m 32,2 km/h (5 Bft) 95,92 %
27.12.2020 02:18 4,5 C 3,9 C 1,1 C 84 % 1005,0 hPa 0,0 l/m 0 min 0 min 0 W/m 38,6 km/h (5 Bft) 97,87 %
27.12.2020 02:20 4,5 C 3,9 C 1,1 C 84 % 1005,0 hPa 0,0 l/m 0 min 0 min 0 W/m 38,6 km/h (5 Bft) 100,00 %
27.12.2020 02:22 4,5 C 3,9 C 1,1 C 84 % 1005,1 hPa 0,0 l/m 0 min 0 min 0 W/m 51,5 km/h (7 Bft) 97,96 %
27.12.2020 02:24 4,5 C 3,9 C 1,1 C 84 % 1004,9 hPa 0,0 l/m 0 min 0 min 0 W/m 41,8 km/h (6 Bft) 100,00 %
27.12.2020 02:26 4,5 C 3,9 C 1,1 C 84 % 1004,8 hPa 0,0 l/m 0 min 0 min 0 W/m 38,6 km/h (5 Bft) 100,00 %
27.12.2020 02:28 4,5 C 3,9 C 1,1 C 84 % 1004,5 hPa 0,0 l/m 0 min 0 min 0 W/m 32,2 km/h (5 Bft) 100,00 %
27.12.2020 02:30 4,5 C 3,9 C 1,1 C 84 % 1004,3 hPa 0,0 l/m 0 min 0 min 0 W/m 29,0 km/h (5 Bft) 100,00 %
27.12.2020 02:32 4,5 C 3,9 C 1,1 C 84 % 1004,2 hPa 0,0 l/m 0 min 0 min 0 W/m 54,7 km/h (7 Bft) 97,92 %
27.12.2020 02:34 4,5 C 3,9 C 1,1 C 84 % 1004,2 hPa 0,0 l/m 0 min 0 min 0 W/m 29,0 km/h (5 Bft) 100,00 %
27.12.2020 02:36 4,5 C 3,9 C 1,1 C 84 % 1004,2 hPa 0,0 l/m 0 min 0 min 0 W/m 32,2 km/h (5 Bft) 100,00 %
27.12.2020 02:38 4,5 C 3,9 C 1,1 C 85 % 1004,1 hPa 0,0 l/m 0 min 0 min 0 W/m 38,6 km/h (5 Bft) 100,00 %
27.12.2020 02:40 4,5 C 3,9 C 1,1 C 85 % 1004,0 hPa 0,0 l/m 0 min 0 min 0 W/m 38,6 km/h (5 Bft) 100,00 %
27.12.2020 02:42 4,5 C 3,9 C 1,1 C 84 % 1004,1 hPa 0,0 l/m 0 min 0 min 0 W/m 51,5 km/h (7 Bft) 97,62 %
27.12.2020 02:44 4,5 C 3,9 C 1,1 C 84 % 1004,1 hPa 0,0 l/m 0 min 0 min 0 W/m 48,3 km/h (6 Bft) 100,00 %
27.12.2020 02:46 4,5 C 3,9 C 1,1 C 84 % 1004,1 hPa 0,0 l/m 0 min 0 min 0 W/m 25,7 km/h (4 Bft) 100,00 %
27.12.2020 02:48 4,5 C 3,9 C 1,1 C 84 % 1004,1 hPa 0,0 l/m 0 min 0 min 0 W/m 57,9 km/h (7 Bft) 100,00 %
27.12.2020 02:50 4,6 C 3,9 C 1,1 C 84 % 1004,0 hPa 0,0 l/m 0 min 0 min 0 W/m 35,4 km/h (5 Bft) 100,00 %
27.12.2020 02:52 4,6 C 3,9 C 1,1 C 84 % 1003,9 hPa 0,0 l/m 0 min 0 min 0 W/m 48,3 km/h (6 Bft) 100,00 %
27.12.2020 02:54 4,6 C 4,4 C 1,6 C 84 % 1003,6 hPa 0,0 l/m 0 min 0 min 0 W/m 48,3 km/h (6 Bft) 100,00 %
27.12.2020 02:56 4,6 C 4,4 C 1,6 C 84 % 1003,7 hPa 0,0 l/m 0 min 0 min 0 W/m 51,5 km/h (7 Bft) 97,83 %
27.12.2020 02:58 4,6 C 4,4 C 1,6 C 84 % 1003,7 hPa 0,0 l/m 0 min 0 min 0 W/m 38,6 km/h (5 Bft) 100,00 %
27.12.2020 03:00 4,6 C 4,4 C 1,6 C 84 % 1003,6 hPa 0,0 l/m 0 min 0 min 0 W/m 48,3 km/h (6 Bft) 100,00 %
27.12.2020 03:02 4,6 C 4,4 C 1,6 C 84 % 1003,5 hPa 0,0 l/m 0 min 0 min 0 W/m 48,3 km/h (6 Bft) 100,00 %
27.12.2020 03:04 4,6 C 4,4 C 1,6 C 84 % 1003,3 hPa 0,0 l/m 0 min 0 min 0 W/m 45,1 km/h (6 Bft) 98,00 %
27.12.2020 03:06 4,6 C 4,4 C 1,6 C 84 % 1003,2 hPa 0,0 l/m 0 min 0 min 0 W/m 29,0 km/h (5 Bft) 100,00 %
27.12.2020 03:08 4,6 C 4,4 C 1,6 C 84 % 1003,2 hPa 0,0 l/m 0 min 0 min 0 W/m 41,8 km/h (6 Bft) 100,00 %
27.12.2020 03:10 4,7 C 4,4 C 1,6 C 84 % 1003,1 hPa 0,0 l/m 0 min 0 min 0 W/m 41,8 km/h (6 Bft) 100,00 %
27.12.2020 03:12 4,7 C 4,4 C 1,6 C 84 % 1003,0 hPa 0,0 l/m 0 min 0 min 0 W/m 35,4 km/h (5 Bft) 100,00 %
27.12.2020 03:14 4,8 C 4,4 C 1,6 C 83 % 1003,2 hPa 0,0 l/m 0 min 0 min 0 W/m 48,3 km/h (6 Bft) 97,14 %
27.12.2020 03:16 4,8 C 4,4 C 1,6 C 83 % 1002,9 hPa 0,0 l/m 0 min 0 min 0 W/m 35,4 km/h (5 Bft) 98,21 %
27.12.2020 03:18 4,8 C 4,4 C 1,6 C 83 % 1002,9 hPa 0,0 l/m 0 min 0 min 0 W/m 45,1 km/h (6 Bft) 97,96 %
27.12.2020 03:20 4,8 C 4,4 C 1,6 C 83 % 1002,9 hPa 0,0 l/m 0 min 0 min 0 W/m 45,1 km/h (6 Bft) 97,22 %
27.12.2020 03:22 4,8 C 4,4 C 1,6 C 83 % 1002,7 hPa 0,0 l/m 0 min 0 min 0 W/m 22,5 km/h (4 Bft) 95,65 %
27.12.2020 03:24 4,8 C 4,4 C 1,6 C 83 % 1002,6 hPa 0,0 l/m 0 min 0 min 0 W/m 32,2 km/h (5 Bft) 96,43 %
27.12.2020 03:26 4,8 C 4,4 C 1,6 C 83 % 1002,6 hPa 0,0 l/m 0 min 0 min 0 W/m 32,2 km/h (5 Bft) 93,62 %
27.12.2020 03:28 4,8 C 4,4 C 1,6 C 83 % 1002,5 hPa 0,0 l/m 0 min 0 min 0 W/m 35,4 km/h (5 Bft) 96,00 %
27.12.2020 03:30 4,9 C 4,4 C 1,6 C 83 % 1002,5 hPa 0,0 l/m 0 min 0 min 0 W/m 29,0 km/h (5 Bft) 94,29 %
27.12.2020 03:32 4,9 C 4,4 C 1,6 C 83 % 1002,5 hPa 0,0 l/m 0 min 0 min 0 W/m 38,6 km/h (5 Bft) 98,21 %
27.12.2020 03:34 4,9 C 4,4 C 1,6 C 83 % 1002,4 hPa 0,0 l/m 0 min 0 min 0 W/m 25,7 km/h (4 Bft) 95,92 %
27.12.2020 03:38 4,9 C 4,4 C 1,6 C 83 % 1002,0 hPa 0,0 l/m 0 min 0 min 0 W/m 45,1 km/h (6 Bft) 94,68 %
27.12.2020 03:40 4,9 C 4,4 C 1,6 C 83 % 1002,0 hPa 0,0 l/m 0 min 0 min 0 W/m 41,8 km/h (6 Bft) 94,29 %
27.12.2020 03:42 4,9 C 4,4 C 1,6 C 83 % 1002,0 hPa 0,0 l/m 0 min 0 min 0 W/m 48,3 km/h (6 Bft) 90,91 %
27.12.2020 03:44 4,9 C 4,4 C 1,6 C 83 % 1001,7 hPa 0,0 l/m 0 min 0 min 0 W/m 38,6 km/h (5 Bft) 93,62 %
27.12.2020 03:46 4,9 C 4,4 C 1,6 C 83 % 1001,7 hPa 0,0 l/m 0 min 0 min 0 W/m 32,2 km/h (5 Bft) 94,00 %
27.12.2020 03:48 4,9 C 4,4 C 1,6 C 83 % 1001,7 hPa 0,0 l/m 0 min 0 min 0 W/m 48,3 km/h (6 Bft) 91,43 %
27.12.2020 03:50 4,9 C 4,4 C 1,6 C 83 % 1001,6 hPa 0,0 l/m 0 min 0 min 0 W/m 38,6 km/h (5 Bft) 94,64 %
27.12.2020 03:52 4,9 C 4,4 C 1,6 C 83 % 1001,7 hPa 0,0 l/m 0 min 0 min 0 W/m 38,6 km/h (5 Bft) 93,88 %
27.12.2020 03:54 4,9 C 4,4 C 1,6 C 83 % 1001,7 hPa 0,0 l/m 0 min 0 min 0 W/m 45,1 km/h (6 Bft) 92,31 %
27.12.2020 03:56 4,9 C 4,4 C 1,6 C 82 % 1001,7 hPa 0,0 l/m 0 min 0 min 0 W/m 38,6 km/h (5 Bft) 93,48 %
27.12.2020 03:58 4,9 C 4,4 C 1,6 C 83 % 1001,5 hPa 0,0 l/m 0 min 0 min 0 W/m 41,8 km/h (6 Bft) 91,07 %
27.12.2020 04:00 4,9 C 4,4 C 1,6 C 82 % 1001,5 hPa 0,0 l/m 0 min 0 min 0 W/m 41,8 km/h (6 Bft) 96,00 %
27.12.2020 04:02 4,9 C 4,4 C 1,6 C 82 % 1001,4 hPa 0,0 l/m 0 min 0 min 0 W/m 48,3 km/h (6 Bft) 92,86 %
27.12.2020 04:04 4,9 C 4,4 C 1,6 C 82 % 1001,4 hPa 0,0 l/m 0 min 0 min 0 W/m 45,1 km/h (6 Bft) 90,62 %
27.12.2020 04:06 4,9 C 4,4 C 1,6 C 82 % 1001,3 hPa 0,0 l/m 0 min 0 min 0 W/m 45,1 km/h (6 Bft) 94,55 %
27.12.2020 04:08 4,9 C 4,4 C 1,6 C 82 % 1001,1 hPa 0,0 l/m 0 min 0 min 0 W/m 35,4 km/h (5 Bft) 95,74 %
27.12.2020 04:10 4,9 C 4,4 C 1,6 C 82 % 1001,0 hPa 0,0 l/m 0 min 0 min 0 W/m 38,6 km/h (5 Bft) 97,87 %
27.12.2020 04:12 4,9 C 4,4 C 1,6 C 82 % 1000,8 hPa 0,0 l/m 0 min 0 min 0 W/m 32,2 km/h (5 Bft) 98,00 %
27.12.2020 04:14 4,9 C 4,4 C 1,6 C 82 % 1000,7 hPa 0,0 l/m 0 min 0 min 0 W/m 45,1 km/h (6 Bft) 97,14 %
27.12.2020 04:16 4,9 C 4,4 C 1,6 C 82 % 1000,7 hPa 0,0 l/m 0 min 0 min 0 W/m 38,6 km/h (5 Bft) 98,18 %
27.12.2020 04:18 4,9 C 4,4 C 1,6 C 82 % 1000,6 hPa 0,0 l/m 0 min 0 min 0 W/m 38,6 km/h (5 Bft) 98,00 %
27.12.2020 04:20 4,9 C 4,4 C 1,6 C 82 % 1000,6 hPa 0,0 l/m 0 min 0 min 0 W/m 32,2 km/h (5 Bft) 97,14 %
27.12.2020 04:22 4,9 C 4,4 C 1,6 C 82 % 1000,5 hPa 0,0 l/m 0 min 0 min 0 W/m 45,1 km/h (6 Bft) 98,21 %
27.12.2020 04:24 4,9 C 4,4 C 1,6 C 82 % 1000,3 hPa 0,0 l/m 0 min 0 min 0 W/m 38,6 km/h (5 Bft) 98,00 %
27.12.2020 04:26 4,9 C 4,4 C 1,6 C 82 % 1000,2 hPa 0,0 l/m 0 min 0 min 0 W/m 38,6 km/h (5 Bft) 97,14 %
27.12.2020 04:28 4,9 C 4,4 C 1,6 C 82 % 1000,1 hPa 0,0 l/m 0 min 0 min 0 W/m 25,7 km/h (4 Bft) 94,23 %
27.12.2020 04:30 4,9 C 4,4 C 1,6 C 82 % 1000,1 hPa 0,0 l/m 0 min 0 min 0 W/m 29,0 km/h (5 Bft) 98,00 %
27.12.2020 04:32 4,9 C 4,4 C 1,6 C 82 % 1000,0 hPa 0,0 l/m 0 min 0 min 0 W/m 32,2 km/h (5 Bft) 96,00 %
27.12.2020 04:34 4,9 C 4,4 C 1,6 C 82 % 999,9 hPa 0,0 l/m 0 min 0 min 0 W/m 29,0 km/h (5 Bft) 97,87 %
27.12.2020 04:36 4,9 C 4,4 C 1,6 C 83 % 999,9 hPa 0,0 l/m 0 min 0 min 0 W/m 35,4 km/h (5 Bft) 97,62 %
27.12.2020 04:38 4,9 C 4,4 C 1,6 C 83 % 999,8 hPa 0,0 l/m 0 min 0 min 0 W/m 29,0 km/h (5 Bft) 97,92 %
27.12.2020 04:40 4,9 C 4,4 C 1,6 C 83 % 999,7 hPa 0,0 l/m 0 min 0 min 0 W/m 35,4 km/h (5 Bft) 97,96 %
27.12.2020 04:42 4,9 C 4,4 C 1,6 C 83 % 999,6 hPa 0,0 l/m 0 min 0 min 0 W/m 22,5 km/h (4 Bft) 95,83 %
27.12.2020 04:44 4,9 C 4,4 C 1,6 C 83 % 999,6 hPa 0,0 l/m 0 min 0 min 0 W/m 22,5 km/h (4 Bft) 97,14 %
27.12.2020 04:46 4,8 C 4,4 C 1,6 C 83 % 999,5 hPa 0,0 l/m 0 min 0 min 0 W/m 41,8 km/h (6 Bft) 98,15 %
27.12.2020 04:48 4,8 C 4,4 C 1,6 C 83 % 999,4 hPa 0,0 l/m 0 min 0 min 0 W/m 25,7 km/h (4 Bft) 100,00 %
27.12.2020 04:50 4,8 C 4,4 C 1,1 C 83 % 999,4 hPa 0,0 l/m 0 min 0 min 0 W/m 35,4 km/h (5 Bft) 100,00 %
27.12.2020 04:52 4,8 C 4,4 C 1,1 C 83 % 999,2 hPa 0,0 l/m 0 min 0 min 0 W/m 38,6 km/h (5 Bft) 95,83 %
27.12.2020 04:54 4,8 C 4,4 C 1,1 C 83 % 999,2 hPa 0,0 l/m 0 min 0 min 0 W/m 29,0 km/h (5 Bft) 97,87 %
27.12.2020 04:56 4,8 C 4,4 C 1,1 C 83 % 999,1 hPa 0,0 l/m 0 min 0 min 0 W/m 19,3 km/h (3 Bft) 100,00 %
27.12.2020 04:58 4,8 C 4,4 C 1,1 C 83 % 999,0 hPa 0,0 l/m 0 min 0 min 0 W/m 29,0 km/h (5 Bft) 100,00 %
27.12.2020 05:00 4,8 C 4,4 C 1,1 C 83 % 998,8 hPa 0,0 l/m 0 min 0 min 0 W/m 22,5 km/h (4 Bft) 100,00 %
27.12.2020 05:02 4,8 C 4,4 C 1,1 C 83 % 998,8 hPa 0,0 l/m 0 min 0 min 0 W/m 32,2 km/h (5 Bft) 95,92 %
27.12.2020 05:04 4,7 C 4,4 C 1,6 C 83 % 998,8 hPa 0,0 l/m 0 min 0 min 0 W/m 29,0 km/h (5 Bft) 100,00 %
27.12.2020 05:06 4,8 C 4,4 C 1,6 C 83 % 998,7 hPa 0,0 l/m 0 min 0 min 0 W/m 25,7 km/h (4 Bft) 100,00 %
27.12.2020 05:08 4,8 C 4,4 C 1,6 C 83 % 998,7 hPa 0,0 l/m 0 min 0 min 0 W/m 35,4 km/h (5 Bft) 97,87 %
27.12.2020 05:10 4,8 C 4,4 C 1,6 C 83 % 998,6 hPa 0,0 l/m 0 min 0 min 0 W/m 29,0 km/h (5 Bft) 100,00 %
27.12.2020 05:12 4,8 C 4,4 C 1,6 C 83 % 998,7 hPa 0,0 l/m 0 min 0 min 0 W/m 45,1 km/h (6 Bft) 100,00 %
27.12.2020 05:14 4,8 C 4,4 C 1,6 C 83 % 998,6 hPa 0,0 l/m 0 min 0 min 0 W/m 35,4 km/h (5 Bft) 100,00 %
27.12.2020 05:16 4,8 C 4,4 C 1,6 C 83 % 998,5 hPa 0,0 l/m 0 min 0 min 0 W/m 25,7 km/h (4 Bft) 100,00 %
27.12.2020 05:18 4,8 C 4,4 C 1,6 C 83 % 998,4 hPa 0,0 l/m 0 min 0 min 0 W/m 25,7 km/h (4 Bft) 100,00 %
27.12.2020 05:20 4,8 C 4,4 C 1,6 C 83 % 998,3 hPa 0,0 l/m 0 min 0 min 0 W/m 25,7 km/h (4 Bft) 100,00 %
27.12.2020 05:22 4,8 C 4,4 C 1,6 C 83 % 998,3 hPa 0,0 l/m 0 min 0 min 0 W/m 25,7 km/h (4 Bft) 100,00 %
27.12.2020 05:24 4,8 C 4,4 C 1,6 C 83 % 998,1 hPa 0,0 l/m 0 min 0 min 0 W/m 22,5 km/h (4 Bft) 100,00 %
27.12.2020 05:26 4,8 C 4,4 C 1,6 C 83 % 998,1 hPa 0,0 l/m 0 min 0 min 0 W/m 35,4 km/h (5 Bft) 100,00 %
27.12.2020 05:28 4,8 C 4,4 C 1,6 C 83 % 998,0 hPa 0,0 l/m 0 min 0 min 0 W/m 19,3 km/h (3 Bft) 100,00 %
27.12.2020 05:30 4,8 C 4,4 C 1,6 C 83 % 997,9 hPa 0,0 l/m 0 min 0 min 0 W/m 29,0 km/h (5 Bft) 100,00 %
27.12.2020 05:32 4,9 C 4,4 C 1,6 C 83 % 998,1 hPa 0,0 l/m 0 min 0 min 0 W/m 25,7 km/h (4 Bft) 100,00 %
27.12.2020 05:34 4,9 C 4,4 C 1,6 C 83 % 997,9 hPa 0,0 l/m 0 min 0 min 0 W/m 35,4 km/h (5 Bft) 100,00 %
27.12.2020 05:36 4,9 C 4,4 C 1,6 C 83 % 998,0 hPa 0,0 l/m 0 min 0 min 0 W/m 32,2 km/h (5 Bft) 47,37 %
27.12.2020 05:38 4,9 C 4,4 C 1,6 C 83 % 997,9 hPa 0,0 l/m 0 min 0 min 0 W/m 19,3 km/h (3 Bft) 100,00 %
27.12.2020 05:40 4,9 C 4,4 C 1,6 C 83 % 997,8 hPa 0,0 l/m 0 min 0 min 0 W/m 22,5 km/h (4 Bft) 100,00 %
27.12.2020 05:42 4,9 C 4,4 C 1,6 C 84 % 997,8 hPa 0,0 l/m 0 min 0 min 0 W/m 16,1 km/h (3 Bft) 100,00 %
27.12.2020 05:44 4,9 C 4,4 C 1,6 C 84 % 997,8 hPa 0,0 l/m 0 min 0 min 0 W/m 29,0 km/h (5 Bft) 100,00 %
27.12.2020 05:46 4,9 C 4,4 C 1,6 C 84 % 997,6 hPa 0,0 l/m 0 min 0 min 0 W/m 29,0 km/h (5 Bft) 100,00 %
27.12.2020 05:48 4,9 C 4,4 C 1,6 C 84 % 997,6 hPa 0,0 l/m 0 min 0 min 0 W/m 32,2 km/h (5 Bft) 100,00 %
27.12.2020 05:50 4,9 C 4,4 C 1,6 C 83 % 997,5 hPa 0,0 l/m 0 min 0 min 0 W/m 29,0 km/h (5 Bft) 97,96 %
27.12.2020 05:52 4,9 C 4,4 C 1,6 C 83 % 997,5 hPa 0,0 l/m 0 min 0 min 0 W/m 32,2 km/h (5 Bft) 97,87 %
27.12.2020 05:54 4,9 C 4,4 C 1,6 C 83 % 997,4 hPa 0,0 l/m 0 min 0 min 0 W/m 35,4 km/h (5 Bft) 100,00 %
27.12.2020 05:56 4,9 C 4,4 C 1,6 C 83 % 997,4 hPa 0,0 l/m 0 min 0 min 0 W/m 29,0 km/h (5 Bft) 100,00 %
27.12.2020 05:58 4,9 C 4,4 C 1,6 C 83 % 997,3 hPa 0,0 l/m 0 min 0 min 0 W/m 29,0 km/h (5 Bft) 100,00 %
27.12.2020 06:00 4,9 C 4,4 C 1,6 C 83 % 997,2 hPa 0,0 l/m 0 min 0 min 0 W/m 29,0 km/h (5 Bft) 97,83 %
27.12.2020 06:02 4,9 C 4,4 C 1,6 C 83 % 997,1 hPa 0,0 l/m 0 min 0 min 0 W/m 25,7 km/h (4 Bft) 98,00 %
27.12.2020 06:04 4,9 C 4,4 C 1,6 C 83 % 997,1 hPa 0,0 l/m 0 min 0 min 0 W/m 32,2 km/h (5 Bft) 96,00 %
27.12.2020 06:08 4,9 C 4,4 C 1,6 C 84 % 996,9 hPa 0,0 l/m 0 min 0 min 0 W/m 54,7 km/h (7 Bft) 94,12 %
27.12.2020 06:10 4,9 C 4,4 C 1,6 C 84 % 996,9 hPa 0,0 l/m 0 min 0 min 0 W/m 29,0 km/h (5 Bft) 95,74 %
27.12.2020 06:12 4,9 C 4,4 C 1,6 C 84 % 996,9 hPa 0,0 l/m 0 min 0 min 0 W/m 32,2 km/h (5 Bft) 96,23 %
27.12.2020 06:14 4,9 C 4,4 C 1,6 C 84 % 996,9 hPa 0,0 l/m 0 min 0 min 0 W/m 32,2 km/h (5 Bft) 96,00 %
27.12.2020 06:16 4,9 C 4,4 C 1,6 C 84 % 996,7 hPa 0,0 l/m 0 min 0 min 0 W/m 38,6 km/h (5 Bft) 94,59 %
27.12.2020 06:18 4,9 C 4,4 C 1,6 C 83 % 996,5 hPa 0,0 l/m 0 min 0 min 0 W/m 38,6 km/h (5 Bft) 95,74 %
27.12.2020 06:20 4,9 C 4,4 C 1,6 C 83 % 996,5 hPa 0,0 l/m 0 min 0 min 0 W/m 35,4 km/h (5 Bft) 94,44 %
27.12.2020 06:22 4,9 C 4,4 C 1,6 C 83 % 996,4 hPa 0,0 l/m 0 min 0 min 0 W/m 9,7 km/h (2 Bft) 93,88 %
27.12.2020 06:24 4,9 C 4,4 C 1,6 C 83 % 996,4 hPa 0,0 l/m 0 min 0 min 0 W/m 29,0 km/h (5 Bft) 94,59 %
27.12.2020 06:26 4,9 C 4,4 C 1,6 C 83 % 996,3 hPa 0,0 l/m 0 min 0 min 0 W/m 22,5 km/h (4 Bft) 93,62 %
27.12.2020 06:28 4,9 C 4,4 C 1,6 C 83 % 996,3 hPa 0,0 l/m 0 min 0 min 0 W/m 22,5 km/h (4 Bft) 93,62 %
27.12.2020 06:30 5,0 C 4,4 C 1,6 C 84 % 996,3 hPa 0,0 l/m 0 min 0 min 0 W/m 35,4 km/h (5 Bft) 96,30 %
27.12.2020 06:32 5,0 C 4,4 C 1,6 C 84 % 996,2 hPa 0,0 l/m 0 min 0 min 0 W/m 25,7 km/h (4 Bft) 96,00 %
27.12.2020 06:34 5,0 C 4,4 C 1,6 C 84 % 996,2 hPa 0,0 l/m 0 min 0 min 0 W/m 29,0 km/h (5 Bft) 94,59 %
27.12.2020 06:36 5,0 C 4,4 C 1,6 C 84 % 996,1 hPa 0,0 l/m 0 min 0 min 0 W/m 41,8 km/h (6 Bft) 95,74 %
27.12.2020 06:38 5,0 C 4,4 C 1,6 C 84 % 996,2 hPa 0,0 l/m 0 min 0 min 0 W/m 35,4 km/h (5 Bft) 96,23 %
27.12.2020 06:40 5,0 C 5,0 C 1,6 C 84 % 996,1 hPa 0,0 l/m 0 min 0 min 0 W/m 35,4 km/h (5 Bft) 93,62 %
27.12.2020 06:42 5,1 C 5,0 C 1,6 C 84 % 996,0 hPa 0,0 l/m 0 min 0 min 0 W/m 57,9 km/h (7 Bft) 95,92 %
27.12.2020 06:44 5,1 C 5,0 C 2,2 C 84 % 996,0 hPa 0,0 l/m 0 min 0 min 0 W/m 35,4 km/h (5 Bft) 94,74 %
27.12.2020 06:46 5,1 C 5,0 C 1,6 C 84 % 995,9 hPa 0,0 l/m 0 min 0 min 0 W/m 25,7 km/h (4 Bft) 96,15 %
27.12.2020 06:48 5,2 C 5,0 C 2,2 C 83 % 995,9 hPa 0,0 l/m 0 min 0 min 0 W/m 32,2 km/h (5 Bft) 96,00 %
27.12.2020 06:50 5,3 C 5,0 C 2,2 C 84 % 995,8 hPa 0,0 l/m 0 min 0 min 0 W/m 38,6 km/h (5 Bft) 97,37 %
27.12.2020 06:52 5,3 C 5,0 C 2,2 C 83 % 995,9 hPa 0,0 l/m 0 min 0 min 0 W/m 38,6 km/h (5 Bft) 100,00 %
27.12.2020 06:54 5,3 C 5,0 C 2,2 C 83 % 995,8 hPa 0,0 l/m 0 min 0 min 0 W/m 51,5 km/h (7 Bft) 100,00 %
27.12.2020 06:56 5,4 C 5,0 C 2,2 C 83 % 995,7 hPa 0,0 l/m 0 min 0 min 0 W/m 45,1 km/h (6 Bft) 97,37 %
27.12.2020 06:58 5,4 C 5,0 C 2,2 C 83 % 995,6 hPa 0,0 l/m 0 min 0 min 0 W/m 41,8 km/h (6 Bft) 100,00 %
27.12.2020 07:00 5,5 C 5,0 C 2,2 C 83 % 995,5 hPa 0,0 l/m 0 min 0 min 0 W/m 35,4 km/h (5 Bft) 100,00 %
27.12.2020 07:02 5,5 C 5,0 C 2,2 C 83 % 995,5 hPa 0,0 l/m 0 min 0 min 0 W/m 45,1 km/h (6 Bft) 100,00 %
27.12.2020 07:04 5,5 C 5,0 C 2,2 C 83 % 995,3 hPa 0,0 l/m 0 min 0 min 0 W/m 29,0 km/h (5 Bft) 100,00 %
27.12.2020 07:06 5,5 C 5,0 C 2,2 C 83 % 995,3 hPa 0,0 l/m 0 min 0 min 0 W/m 38,6 km/h (5 Bft) 100,00 %
27.12.2020 07:08 5,5 C 5,0 C 2,2 C 83 % 995,2 hPa 0,0 l/m 0 min 0 min 0 W/m 45,1 km/h (6 Bft) 100,00 %
27.12.2020 07:10 5,5 C 5,0 C 2,2 C 83 % 995,0 hPa 0,0 l/m 0 min 0 min 0 W/m 45,1 km/h (6 Bft) 97,83 %
27.12.2020 07:12 5,5 C 5,0 C 2,2 C 83 % 995,1 hPa 0,0 l/m 0 min 0 min 0 W/m 32,2 km/h (5 Bft) 100,00 %
27.12.2020 07:14 5,6 C 5,0 C 2,2 C 83 % 995,1 hPa 0,0 l/m 0 min 0 min 0 W/m 41,8 km/h (6 Bft) 100,00 %
27.12.2020 07:16 5,6 C 5,0 C 2,2 C 83 % 995,0 hPa 0,0 l/m 0 min 0 min 0 W/m 29,0 km/h (5 Bft) 100,00 %
27.12.2020 07:18 5,6 C 5,0 C 2,2 C 83 % 994,9 hPa 0,0 l/m 0 min 0 min 0 W/m 48,3 km/h (6 Bft) 100,00 %
27.12.2020 07:20 5,6 C 5,0 C 2,2 C 83 % 994,8 hPa 0,0 l/m 0 min 0 min 0 W/m 54,7 km/h (7 Bft) 100,00 %
27.12.2020 07:22 5,6 C 5,0 C 2,2 C 83 % 994,8 hPa 0,0 l/m 0 min 0 min 0 W/m 35,4 km/h (5 Bft) 100,00 %
27.12.2020 07:24 5,6 C 5,0 C 2,2 C 83 % 994,6 hPa 0,0 l/m 0 min 0 min 0 W/m 29,0 km/h (5 Bft) 100,00 %
27.12.2020 07:26 5,6 C 5,0 C 2,2 C 83 % 994,5 hPa 0,0 l/m 0 min 0 min 0 W/m 57,9 km/h (7 Bft) 100,00 %
27.12.2020 07:28 5,6 C 5,0 C 2,2 C 83 % 994,4 hPa 0,0 l/m 0 min 0 min 0 W/m 22,5 km/h (4 Bft) 100,00 %
27.12.2020 07:30 5,6 C 5,0 C 2,2 C 83 % 994,4 hPa 0,0 l/m 0 min 0 min 0 W/m 38,6 km/h (5 Bft) 100,00 %
27.12.2020 07:32 5,6 C 5,0 C 2,2 C 83 % 994,4 hPa 0,0 l/m 0 min 0 min 0 W/m 38,6 km/h (5 Bft) 100,00 %
27.12.2020 07:34 5,6 C 5,0 C 2,2 C 83 % 994,2 hPa 0,0 l/m 0 min 0 min 0 W/m 29,0 km/h (5 Bft) 98,18 %
27.12.2020 07:36 5,6 C 5,0 C 2,2 C 83 % 994,2 hPa 0,0 l/m 0 min 0 min 0 W/m 35,4 km/h (5 Bft) 97,37 %
27.12.2020 07:38 5,6 C 5,0 C 2,2 C 83 % 994,2 hPa 0,0 l/m 0 min 0 min 0 W/m 41,8 km/h (6 Bft) 98,11 %
27.12.2020 07:40 5,6 C 5,0 C 2,2 C 83 % 994,1 hPa 0,0 l/m 0 min 0 min 0 W/m 38,6 km/h (5 Bft) 97,87 %
27.12.2020 07:42 5,6 C 5,0 C 2,2 C 83 % 994,0 hPa 0,0 l/m 0 min 0 min 0 W/m 32,2 km/h (5 Bft) 98,00 %
27.12.2020 07:44 5,7 C 5,0 C 2,2 C 83 % 993,9 hPa 0,0 l/m 0 min 0 min 0 W/m 45,1 km/h (6 Bft) 97,78 %
27.12.2020 07:46 5,7 C 5,0 C 2,2 C 83 % 993,9 hPa 0,0 l/m 0 min 0 min 0 W/m 57,9 km/h (7 Bft) 97,96 %
27.12.2020 07:48 5,7 C 5,0 C 2,2 C 83 % 993,8 hPa 0,0 l/m 0 min 0 min 0 W/m 32,2 km/h (5 Bft) 93,88 %
27.12.2020 07:50 5,7 C 5,6 C 2,2 C 83 % 993,7 hPa 0,0 l/m 0 min 0 min 0 W/m 41,8 km/h (6 Bft) 97,87 %
27.12.2020 07:52 5,8 C 5,6 C 2,2 C 83 % 993,7 hPa 0,0 l/m 0 min 0 min 0 W/m 45,1 km/h (6 Bft) 97,14 %
27.12.2020 07:54 5,8 C 5,6 C 2,2 C 83 % 993,7 hPa 0,0 l/m 0 min 0 min 0 W/m 41,8 km/h (6 Bft) 98,15 %
27.12.2020 07:56 5,8 C 5,6 C 2,2 C 83 % 993,7 hPa 0,0 l/m 0 min 0 min 0 W/m 51,5 km/h (7 Bft) 95,92 %
27.12.2020 07:58 5,8 C 5,6 C 2,2 C 83 % 993,6 hPa 0,0 l/m 0 min 0 min 0 W/m 41,8 km/h (6 Bft) 98,00 %
27.12.2020 08:00 5,8 C 5,6 C 2,2 C 83 % 993,6 hPa 0,0 l/m 0 min 0 min 0 W/m 25,7 km/h (4 Bft) 97,30 %
27.12.2020 08:02 5,9 C 5,6 C 2,2 C 83 % 993,5 hPa 0,0 l/m 0 min 0 min 0 W/m 32,2 km/h (5 Bft) 98,00 %
27.12.2020 08:04 5,9 C 5,6 C 2,2 C 82 % 993,5 hPa 0,0 l/m 0 min 0 min 0 W/m 32,2 km/h (5 Bft) 98,00 %
27.12.2020 08:06 5,9 C 5,6 C 2,2 C 82 % 993,4 hPa 0,0 l/m 0 min 0 min 0 W/m 54,7 km/h (7 Bft) 95,74 %
27.12.2020 08:08 5,9 C 5,6 C 2,2 C 82 % 993,1 hPa 0,0 l/m 0 min 0 min 0 W/m 45,1 km/h (6 Bft) 97,83 %
27.12.2020 08:10 5,9 C 5,6 C 2,2 C 82 % 993,1 hPa 0,0 l/m 0 min 0 min 0 W/m 61,2 km/h (7 Bft) 97,87 %
27.12.2020 08:12 5,9 C 5,6 C 2,7 C 82 % 993,1 hPa 0,0 l/m 0 min 0 min 0 W/m 45,1 km/h (6 Bft) 97,62 %
27.12.2020 08:14 5,9 C 5,6 C 2,7 C 82 % 993,0 hPa 0,0 l/m 0 min 0 min 0 W/m 48,3 km/h (6 Bft) 98,00 %
27.12.2020 08:16 6,0 C 5,6 C 2,7 C 82 % 993,0 hPa 0,0 l/m 0 min 0 min 0 W/m 54,7 km/h (7 Bft) 95,92 %
27.12.2020 08:18 6,0 C 5,6 C 2,7 C 82 % 992,8 hPa 0,0 l/m 0 min 0 min 0 W/m 41,8 km/h (6 Bft) 97,87 %
27.12.2020 08:20 6,0 C 5,6 C 2,7 C 82 % 992,8 hPa 0,0 l/m 0 min 0 min 0 W/m 41,8 km/h (6 Bft) 95,12 %
27.12.2020 08:22 6,0 C 5,6 C 2,7 C 82 % 992,8 hPa 0,0 l/m 0 min 0 min 0 W/m 38,6 km/h (5 Bft) 98,00 %
27.12.2020 08:24 6,0 C 5,6 C 2,7 C 82 % 992,8 hPa 0,0 l/m 0 min 0 min 0 W/m 45,1 km/h (6 Bft) 97,96 %
27.12.2020 08:26 6,0 C 5,6 C 2,7 C 82 % 992,7 hPa 0,0 l/m 0 min 0 min 0 W/m 41,8 km/h (6 Bft) 97,87 %
27.12.2020 08:28 6,0 C 5,6 C 2,7 C 82 % 992,6 hPa 0,0 l/m 0 min 0 min 0 W/m 61,2 km/h (7 Bft) 95,24 %
27.12.2020 08:30 6,0 C 5,6 C 2,7 C 81 % 992,9 hPa 0,0 l/m 0 min 0 min 0 W/m 32,2 km/h (5 Bft) 96,00 %
27.12.2020 08:32 6,0 C 5,6 C 2,7 C 82 % 992,6 hPa 0,0 l/m 0 min 0 min 0 W/m 41,8 km/h (6 Bft) 97,92 %
27.12.2020 08:34 6,1 C 5,6 C 2,7 C 82 % 992,5 hPa 0,0 l/m 0 min 0 min 0 W/m 32,2 km/h (5 Bft) 97,87 %
27.12.2020 08:36 6,1 C 5,6 C 2,7 C 81 % 992,5 hPa 0,0 l/m 0 min 0 min 0 W/m 48,3 km/h (6 Bft) 97,62 %
27.12.2020 08:38 6,1 C 5,6 C 2,7 C 81 % 992,3 hPa 0,0 l/m 0 min 0 min 0 W/m 45,1 km/h (6 Bft) 96,00 %
27.12.2020 08:40 6,1 C 5,6 C 2,7 C 81 % 992,2 hPa 0,0 l/m 0 min 0 min 0 W/m 48,3 km/h (6 Bft) 97,87 %
27.12.2020 08:42 6,1 C 5,6 C 2,7 C 81 % 992,3 hPa 0,0 l/m 0 min 0 min 0 W/m 29,0 km/h (5 Bft) 100,00 %
27.12.2020 08:44 6,1 C 5,6 C 2,7 C 81 % 992,2 hPa 0,0 l/m 0 min 0 min 0 W/m 45,1 km/h (6 Bft) 100,00 %
27.12.2020 08:46 6,1 C 5,6 C 2,7 C 81 % 992,2 hPa 0,0 l/m 0 min 0 min 0 W/m 51,5 km/h (7 Bft) 95,24 %
27.12.2020 08:48 6,1 C 5,6 C 2,7 C 81 % 992,2 hPa 0,0 l/m 0 min 0 min 0 W/m 57,9 km/h (7 Bft) 96,15 %
27.12.2020 08:50 6,1 C 5,6 C 2,7 C 81 % 992,0 hPa 0,0 l/m 0 min 0 min 0 W/m 41,8 km/h (6 Bft) 94,29 %
27.12.2020 08:52 6,1 C 5,6 C 2,7 C 81 % 992,1 hPa 0,0 l/m 0 min 0 min 0 W/m 64,4 km/h (8 Bft) 96,30 %
27.12.2020 08:54 6,2 C 5,6 C 2,7 C 80 % 991,9 hPa 0,0 l/m 0 min 0 min 0 W/m 35,4 km/h (5 Bft) 91,84 %
27.12.2020 08:56 6,2 C 5,6 C 2,7 C 80 % 991,8 hPa 0,0 l/m 0 min 0 min 0 W/m 41,8 km/h (6 Bft) 93,62 %
27.12.2020 08:58 6,2 C 5,6 C 2,7 C 80 % 991,7 hPa 0,0 l/m 0 min 0 min 0 W/m 29,0 km/h (5 Bft) 96,00 %
27.12.2020 09:00 6,2 C 5,6 C 2,7 C 80 % 991,7 hPa 0,0 l/m 0 min 0 min 0 W/m 41,8 km/h (6 Bft) 95,92 %
27.12.2020 09:02 6,2 C 5,6 C 2,7 C 80 % 991,6 hPa 0,0 l/m 0 min 0 min 0 W/m 54,7 km/h (7 Bft) 95,83 %
27.12.2020 09:04 6,2 C 5,6 C 2,7 C 80 % 991,6 hPa 0,0 l/m 0 min 0 min 0 W/m 54,7 km/h (7 Bft) 94,74 %
27.12.2020 09:06 6,2 C 5,6 C 2,7 C 80 % 991,6 hPa 0,0 l/m 0 min 0 min 0 W/m 35,4 km/h (5 Bft) 95,83 %
27.12.2020 09:08 6,3 C 5,6 C 2,7 C 80 % 991,5 hPa 0,0 l/m 0 min 0 min 0 W/m 57,9 km/h (7 Bft) 95,74 %
27.12.2020 09:10 6,3 C 5,6 C 2,7 C 80 % 991,4 hPa 0,0 l/m 0 min 0 min 0 W/m 51,5 km/h (7 Bft) 95,74 %
27.12.2020 09:12 6,3 C 5,6 C 2,7 C 80 % 991,5 hPa 0,0 l/m 0 min 0 min 0 W/m 45,1 km/h (6 Bft) 91,49 %
27.12.2020 09:14 6,3 C 5,6 C 2,7 C 80 % 991,4 hPa 0,0 l/m 0 min 0 min 0 W/m 38,6 km/h (5 Bft) 96,30 %
27.12.2020 09:16 6,3 C 5,6 C 2,7 C 80 % 991,3 hPa 0,0 l/m 0 min 0 min 0 W/m 41,8 km/h (6 Bft) 94,74 %
27.12.2020 09:18 6,3 C 5,6 C 2,7 C 80 % 991,2 hPa 0,0 l/m 0 min 0 min 0 W/m 64,4 km/h (8 Bft) 95,65 %
27.12.2020 09:20 6,3 C 5,6 C 2,7 C 80 % 991,1 hPa 0,0 l/m 0 min 0 min 3 W/m 45,1 km/h (6 Bft) 95,92 %
27.12.2020 09:22 6,3 C 5,6 C 2,7 C 80 % 991,1 hPa 0,0 l/m 0 min 0 min 5 W/m 32,2 km/h (5 Bft) 95,74 %
27.12.2020 09:24 6,3 C 5,6 C 2,7 C 80 % 991,0 hPa 0,0 l/m 0 min 0 min 5 W/m 54,7 km/h (7 Bft) 94,44 %
27.12.2020 09:26 6,3 C 5,6 C 2,7 C 80 % 991,0 hPa 0,0 l/m 0 min 0 min 5 W/m 57,9 km/h (7 Bft) 94,87 %
27.12.2020 09:28 6,4 C 6,1 C 2,7 C 80 % 990,9 hPa 0,0 l/m 0 min 0 min 5 W/m 51,5 km/h (7 Bft) 95,74 %
27.12.2020 09:30 6,4 C 6,1 C 2,7 C 80 % 990,9 hPa 0,0 l/m 0 min 0 min 7 W/m 45,1 km/h (6 Bft) 93,48 %
27.12.2020 09:32 6,4 C 5,6 C 2,7 C 80 % 990,7 hPa 0,0 l/m 0 min 0 min 7 W/m 25,7 km/h (4 Bft) 95,83 %
27.12.2020 09:34 6,4 C 5,6 C 2,7 C 80 % 990,7 hPa 0,0 l/m 0 min 0 min 7 W/m 45,1 km/h (6 Bft) 97,87 %
27.12.2020 09:36 6,4 C 5,6 C 2,7 C 80 % 990,6 hPa 0,0 l/m 0 min 0 min 7 W/m 6,4 km/h (2 Bft) 100,00 %
27.12.2020 09:38 6,4 C 5,6 C 2,7 C 80 % 990,5 hPa 0,0 l/m 0 min 0 min 7 W/m 19,3 km/h (3 Bft) 100,00 %
27.12.2020 09:40 6,4 C 5,6 C 2,7 C 80 % 990,4 hPa 0,0 l/m 0 min 0 min 7 W/m 38,6 km/h (5 Bft) 100,00 %
27.12.2020 09:42 6,4 C 5,6 C 2,7 C 80 % 990,3 hPa 0,0 l/m 0 min 0 min 7 W/m 48,3 km/h (6 Bft) 100,00 %
27.12.2020 09:44 6,4 C 5,6 C 2,7 C 80 % 990,3 hPa 0,0 l/m 0 min 2 min 7 W/m 29,0 km/h (5 Bft) 100,00 %
27.12.2020 09:46 6,4 C 5,6 C 2,7 C 80 % 990,3 hPa 0,0 l/m 0 min 0 min 8 W/m 32,2 km/h (5 Bft) 100,00 %
27.12.2020 09:48 6,4 C 5,6 C 2,2 C 80 % 990,2 hPa 0,0 l/m 0 min 2 min 10 W/m 41,8 km/h (6 Bft) 100,00 %
27.12.2020 09:50 6,4 C 5,6 C 2,7 C 80 % 990,0 hPa 0,0 l/m 0 min 2 min 11 W/m 45,1 km/h (6 Bft) 100,00 %
27.12.2020 09:52 6,4 C 5,6 C 2,7 C 80 % 990,0 hPa 0,0 l/m 0 min 2 min 10 W/m 45,1 km/h (6 Bft) 100,00 %
27.12.2020 09:54 6,4 C 5,6 C 2,7 C 80 % 989,9 hPa 0,0 l/m 0 min 2 min 11 W/m 48,3 km/h (6 Bft) 100,00 %
27.12.2020 09:56 6,4 C 5,0 C 2,7 C 80 % 990,0 hPa 0,0 l/m 0 min 2 min 11 W/m 45,1 km/h (6 Bft) 100,00 %
27.12.2020 09:58 6,4 C 5,6 C 2,2 C 80 % 989,8 hPa 0,0 l/m 0 min 2 min 11 W/m 22,5 km/h (4 Bft) 100,00 %
27.12.2020 10:00 6,4 C 5,0 C 2,2 C 81 % 989,7 hPa 0,0 l/m 0 min 2 min 10 W/m 41,8 km/h (6 Bft) 100,00 %
27.12.2020 10:02 6,4 C 5,0 C 2,2 C 81 % 989,7 hPa 0,0 l/m 0 min 2 min 9 W/m 54,7 km/h (7 Bft) 100,00 %
27.12.2020 10:04 6,4 C 5,0 C 2,2 C 81 % 989,5 hPa 0,0 l/m 0 min 2 min 9 W/m 6,4 km/h (2 Bft) 100,00 %
27.12.2020 10:06 6,4 C 4,4 C 1,6 C 81 % 989,6 hPa 0,0 l/m 0 min 2 min 9 W/m 45,1 km/h (6 Bft) 100,00 %
27.12.2020 10:08 6,3 C 3,9 C 1,1 C 82 % 989,5 hPa 0,0 l/m 0 min 2 min 10 W/m 35,4 km/h (5 Bft) 100,00 %
27.12.2020 10:10 6,3 C 3,9 C 1,1 C 82 % 989,5 hPa 0,0 l/m 0 min 2 min 10 W/m 32,2 km/h (5 Bft) 95,74 %
27.12.2020 10:12 6,1 C 3,9 C 1,1 C 82 % 989,5 hPa 0,0 l/m 0 min 2 min 9 W/m 32,2 km/h (5 Bft) 98,00 %
27.12.2020 10:14 6,1 C 3,9 C 1,1 C 83 % 989,4 hPa 0,0 l/m 0 min 2 min 9 W/m 9,7 km/h (2 Bft) 100,00 %
27.12.2020 10:16 6,0 C 3,9 C 1,1 C 83 % 989,3 hPa 0,0 l/m 0 min 2 min 8 W/m 45,1 km/h (6 Bft) 100,00 %
27.12.2020 10:18 6,0 C 3,9 C 1,1 C 84 % 989,4 hPa 0,0 l/m 0 min 2 min 9 W/m 35,4 km/h (5 Bft) 100,00 %
27.12.2020 10:20 5,9 C 3,9 C 1,1 C 84 % 989,3 hPa 0,0 l/m 0 min 2 min 8 W/m 29,0 km/h (5 Bft) 100,00 %
27.12.2020 10:22 5,9 C 3,9 C 0,5 C 84 % 989,2 hPa 0,2 l/m 0 min 2 min 11 W/m 25,7 km/h (4 Bft) 97,37 %
27.12.2020 10:24 5,8 C 3,9 C 1,1 C 85 % 989,2 hPa 0,0 l/m 0 min 2 min 10 W/m 6,4 km/h (2 Bft) 100,00 %
27.12.2020 10:26 5,8 C 3,9 C 0,5 C 85 % 989,0 hPa 0,0 l/m 0 min 2 min 9 W/m 19,3 km/h (3 Bft) 100,00 %
27.12.2020 10:28 5,7 C 3,9 C 0,5 C 85 % 988,9 hPa 0,0 l/m 0 min 2 min 11 W/m 25,7 km/h (4 Bft) 100,00 %
27.12.2020 10:30 5,6 C 3,9 C 0,5 C 85 % 988,8 hPa 0,0 l/m 0 min 2 min 11 W/m 38,6 km/h (5 Bft) 100,00 %
27.12.2020 10:32 5,6 C 3,9 C 0,5 C 85 % 988,8 hPa 0,0 l/m 0 min 2 min 11 W/m 45,1 km/h (6 Bft) 100,00 %
27.12.2020 10:34 5,6 C 3,9 C 0,5 C 85 % 988,7 hPa 0,0 l/m 0 min 2 min 11 W/m 38,6 km/h (5 Bft) 100,00 %
27.12.2020 10:36 5,5 C 3,9 C 0,5 C 85 % 988,7 hPa 0,0 l/m 0 min 2 min 13 W/m 45,1 km/h (6 Bft) 100,00 %
27.12.2020 10:38 5,5 C 3,9 C 0,5 C 85 % 988,6 hPa 0,0 l/m 0 min 2 min 12 W/m 38,6 km/h (5 Bft) 100,00 %
27.12.2020 10:40 5,5 C 3,9 C 0,5 C 85 % 988,6 hPa 0,0 l/m 0 min 2 min 10 W/m 29,0 km/h (5 Bft) 100,00 %
27.12.2020 10:42 5,5 C 3,9 C 0,5 C 86 % 988,4 hPa 0,0 l/m 0 min 2 min 14 W/m 29,0 km/h (5 Bft) 100,00 %
27.12.2020 10:44 5,5 C 3,3 C 0,5 C 86 % 988,4 hPa 0,0 l/m 0 min 2 min 12 W/m 41,8 km/h (6 Bft) 100,00 %
27.12.2020 10:46 5,5 C 3,3 C 0,5 C 86 % 988,4 hPa 0,0 l/m 0 min 2 min 14 W/m 38,6 km/h (5 Bft) 100,00 %
27.12.2020 10:48 5,5 C 3,3 C 0,5 C 86 % 988,4 hPa 0,0 l/m 0 min 2 min 15 W/m 35,4 km/h (5 Bft) 100,00 %
27.12.2020 10:50 5,4 C 3,3 C 0,5 C 86 % 988,1 hPa 0,2 l/m 0 min 2 min 16 W/m 45,1 km/h (6 Bft) 100,00 %
27.12.2020 10:52 5,4 C 3,3 C 0,5 C 86 % 988,1 hPa 0,0 l/m 0 min 2 min 14 W/m 35,4 km/h (5 Bft) 97,83 %
27.12.2020 10:54 5,4 C 3,9 C 0,5 C 86 % 988,1 hPa 0,0 l/m 0 min 2 min 17 W/m 32,2 km/h (5 Bft) 98,15 %
27.12.2020 10:56 5,4 C 3,9 C 1,1 C 86 % 988,0 hPa 0,0 l/m 0 min 2 min 18 W/m 29,0 km/h (5 Bft) 98,00 %
27.12.2020 10:58 5,4 C 3,9 C 1,1 C 86 % 987,9 hPa 0,0 l/m 0 min 2 min 18 W/m 35,4 km/h (5 Bft) 100,00 %
27.12.2020 11:00 5,4 C 3,9 C 1,1 C 86 % 987,9 hPa 0,0 l/m 0 min 2 min 18 W/m 41,8 km/h (6 Bft) 97,96 %
27.12.2020 11:02 5,4 C 3,9 C 1,1 C 86 % 987,9 hPa 0,0 l/m 0 min 2 min 19 W/m 3,2 km/h (1 Bft) 100,00 %
27.12.2020 11:04 5,4 C 3,9 C 1,1 C 86 % 987,8 hPa 0,0 l/m 0 min 2 min 17 W/m 35,4 km/h (5 Bft) 100,00 %
27.12.2020 11:06 5,5 C 3,9 C 1,1 C 86 % 987,7 hPa 0,0 l/m 0 min 2 min 19 W/m 45,1 km/h (6 Bft) 100,00 %
27.12.2020 11:08 5,5 C 3,9 C 1,1 C 86 % 987,7 hPa 0,0 l/m 0 min 2 min 20 W/m 32,2 km/h (5 Bft) 100,00 %
27.12.2020 11:10 5,5 C 3,9 C 1,1 C 86 % 987,5 hPa 0,0 l/m 0 min 2 min 17 W/m 25,7 km/h (4 Bft) 100,00 %
27.12.2020 11:12 5,5 C 3,9 C 1,1 C 86 % 987,5 hPa 0,0 l/m 0 min 2 min 17 W/m 22,5 km/h (4 Bft) 100,00 %
27.12.2020 11:14 5,5 C 3,9 C 1,1 C 85 % 987,5 hPa 0,0 l/m 0 min 2 min 18 W/m 35,4 km/h (5 Bft) 95,83 %
27.12.2020 11:16 5,5 C 3,9 C 1,1 C 85 % 987,4 hPa 0,0 l/m 0 min 2 min 18 W/m 25,7 km/h (4 Bft) 97,14 %
27.12.2020 11:18 5,6 C 3,9 C 1,1 C 85 % 987,3 hPa 0,0 l/m 0 min 2 min 19 W/m 57,9 km/h (7 Bft) 100,00 %
27.12.2020 11:20 5,6 C 3,9 C 1,1 C 85 % 987,1 hPa 0,0 l/m 0 min 2 min 18 W/m 41,8 km/h (6 Bft) 100,00 %
27.12.2020 11:22 5,6 C 3,9 C 1,1 C 85 % 987,1 hPa 0,0 l/m 0 min 2 min 18 W/m 38,6 km/h (5 Bft) 97,96 %
27.12.2020 11:24 5,6 C 3,9 C 1,1 C 85 % 987,1 hPa 0,0 l/m 0 min 2 min 19 W/m 19,3 km/h (3 Bft) 100,00 %
27.12.2020 11:26 5,6 C 3,9 C 1,1 C 85 % 987,1 hPa 0,0 l/m 0 min 2 min 19 W/m 35,4 km/h (5 Bft) 96,23 %
27.12.2020 11:28 5,6 C 3,9 C 1,1 C 85 % 987,0 hPa 0,0 l/m 0 min 2 min 19 W/m 29,0 km/h (5 Bft) 98,00 %
27.12.2020 11:30 5,6 C 3,9 C 1,1 C 85 % 987,0 hPa 0,0 l/m 0 min 2 min 23 W/m 41,8 km/h (6 Bft) 95,92 %
27.12.2020 11:32 5,6 C 3,9 C 1,1 C 85 % 986,9 hPa 0,0 l/m 0 min 2 min 23 W/m 35,4 km/h (5 Bft) 97,14 %
27.12.2020 11:34 5,6 C 3,9 C 1,1 C 85 % 986,8 hPa 0,0 l/m 0 min 2 min 28 W/m 32,2 km/h (5 Bft) 92,59 %
27.12.2020 11:36 5,7 C 3,9 C 1,1 C 85 % 986,7 hPa 0,0 l/m 0 min 2 min 27 W/m 61,2 km/h (7 Bft) 95,92 %
27.12.2020 11:38 5,7 C 4,4 C 1,6 C 85 % 986,7 hPa 0,0 l/m 0 min 2 min 25 W/m 45,1 km/h (6 Bft) 95,92 %
27.12.2020 11:40 5,7 C 4,4 C 1,6 C 85 % 986,6 hPa 0,0 l/m 0 min 2 min 24 W/m 51,5 km/h (7 Bft) 93,62 %
27.12.2020 11:42 5,8 C 4,4 C 1,6 C 85 % 986,5 hPa 0,0 l/m 0 min 2 min 23 W/m 54,7 km/h (7 Bft) 94,29 %
27.12.2020 11:44 5,8 C 4,4 C 1,6 C 85 % 986,5 hPa 0,0 l/m 0 min 2 min 22 W/m 41,8 km/h (6 Bft) 94,44 %
27.12.2020 11:46 5,8 C 4,4 C 1,6 C 84 % 986,5 hPa 0,0 l/m 0 min 2 min 20 W/m 29,0 km/h (5 Bft) 92,00 %
27.12.2020 11:48 5,8 C 4,4 C 1,6 C 84 % 986,6 hPa 0,0 l/m 0 min 2 min 26 W/m 19,3 km/h (3 Bft) 89,58 %
27.12.2020 11:50 5,8 C 5,0 C 1,6 C 84 % 986,4 hPa 0,0 l/m 0 min 2 min 27 W/m 35,4 km/h (5 Bft) 94,44 %
27.12.2020 11:52 5,8 C 5,0 C 1,6 C 84 % 986,3 hPa 0,0 l/m 0 min 2 min 23 W/m 35,4 km/h (5 Bft) 94,34 %
27.12.2020 11:54 5,8 C 5,0 C 1,6 C 84 % 986,2 hPa 0,0 l/m 0 min 2 min 23 W/m 41,8 km/h (6 Bft) 92,16 %
27.12.2020 11:56 5,8 C 5,0 C 1,6 C 84 % 986,1 hPa 0,0 l/m 0 min 2 min 22 W/m 3,2 km/h (1 Bft) 94,44 %
27.12.2020 11:58 5,8 C 5,0 C 1,6 C 84 % 986,1 hPa 0,0 l/m 0 min 2 min 23 W/m 51,5 km/h (7 Bft) 94,00 %
27.12.2020 12:00 5,8 C 5,0 C 1,6 C 84 % 986,3 hPa 0,0 l/m 0 min 2 min 21 W/m 29,0 km/h (5 Bft) 91,49 %
27.12.2020 12:02 5,8 C 5,0 C 1,6 C 84 % 985,9 hPa 0,0 l/m 0 min 2 min 20 W/m 45,1 km/h (6 Bft) 93,88 %
27.12.2020 12:04 5,8 C 5,0 C 1,6 C 84 % 985,8 hPa 0,0 l/m 0 min 2 min 19 W/m 41,8 km/h (6 Bft) 94,74 %
27.12.2020 12:08 5,8 C 4,4 C 1,6 C 84 % 985,9 hPa 0,0 l/m 0 min 4 min 19 W/m 35,4 km/h (5 Bft) 93,33 %
27.12.2020 12:10 5,8 C 4,4 C 1,6 C 84 % 985,7 hPa 0,0 l/m 0 min 2 min 19 W/m 25,7 km/h (4 Bft) 95,83 %
27.12.2020 12:12 5,8 C 4,4 C 1,6 C 84 % 985,7 hPa 0,0 l/m 0 min 2 min 19 W/m 38,6 km/h (5 Bft) 94,29 %
27.12.2020 12:14 5,8 C 4,4 C 1,1 C 84 % 985,5 hPa 0,0 l/m 0 min 2 min 18 W/m 38,6 km/h (5 Bft) 96,55 %
27.12.2020 12:16 5,8 C 4,4 C 1,1 C 84 % 985,5 hPa 0,0 l/m 0 min 2 min 19 W/m 32,2 km/h (5 Bft) 95,24 %
27.12.2020 12:18 5,7 C 3,9 C 1,1 C 85 % 985,4 hPa 0,0 l/m 0 min 2 min 18 W/m 25,7 km/h (4 Bft) 98,00 %
27.12.2020 12:20 5,7 C 3,9 C 1,1 C 85 % 985,4 hPa 0,0 l/m 0 min 2 min 18 W/m 45,1 km/h (6 Bft) 93,88 %
27.12.2020 12:22 5,6 C 3,9 C 1,1 C 85 % 985,3 hPa 0,0 l/m 0 min 2 min 19 W/m 35,4 km/h (5 Bft) 93,48 %
27.12.2020 12:24 5,6 C 3,9 C 1,1 C 85 % 985,2 hPa 0,2 l/m 0 min 2 min 18 W/m 45,1 km/h (6 Bft) 95,74 %
27.12.2020 12:26 5,6 C 3,9 C 1,1 C 85 % 985,2 hPa 0,0 l/m 0 min 2 min 16 W/m 35,4 km/h (5 Bft) 95,24 %
27.12.2020 12:28 5,6 C 3,9 C 1,1 C 85 % 985,0 hPa 0,0 l/m 0 min 2 min 16 W/m 45,1 km/h (6 Bft) 96,00 %
27.12.2020 12:30 5,6 C 3,3 C 1,1 C 85 % 984,9 hPa 0,0 l/m 0 min 2 min 16 W/m 25,7 km/h (4 Bft) 95,74 %
27.12.2020 12:32 5,5 C 3,3 C 1,1 C 86 % 984,9 hPa 0,0 l/m 0 min 2 min 16 W/m 45,1 km/h (6 Bft) 91,84 %
27.12.2020 12:34 5,5 C 3,3 C 1,1 C 86 % 984,7 hPa 0,2 l/m 0 min 2 min 16 W/m 38,6 km/h (5 Bft) 93,48 %
27.12.2020 12:36 5,5 C 3,3 C 0,5 C 86 % 984,7 hPa 0,0 l/m 0 min 2 min 16 W/m 38,6 km/h (5 Bft) 97,62 %
27.12.2020 12:38 5,5 C 3,3 C 0,5 C 86 % 984,6 hPa 0,0 l/m 0 min 2 min 14 W/m 29,0 km/h (5 Bft) 93,62 %
27.12.2020 12:40 5,4 C 3,3 C 0,5 C 87 % 984,6 hPa 0,0 l/m 0 min 2 min 14 W/m 54,7 km/h (7 Bft) 97,87 %
27.12.2020 12:42 5,4 C 3,3 C 0,5 C 87 % 984,5 hPa 0,0 l/m 0 min 2 min 12 W/m 35,4 km/h (5 Bft) 94,00 %
27.12.2020 12:44 5,4 C 3,3 C 0,5 C 87 % 984,3 hPa 0,2 l/m 0 min 2 min 12 W/m 9,7 km/h (2 Bft) 97,96 %
27.12.2020 12:46 5,3 C 3,3 C 0,5 C 87 % 984,4 hPa 0,0 l/m 0 min 2 min 12 W/m 29,0 km/h (5 Bft) 97,83 %
27.12.2020 12:48 5,3 C 3,3 C 0,5 C 88 % 984,2 hPa 0,2 l/m 0 min 2 min 12 W/m 61,2 km/h (7 Bft) 100,00 %
27.12.2020 12:50 5,3 C 3,3 C 0,5 C 88 % 984,2 hPa 0,0 l/m 0 min 2 min 12 W/m 22,5 km/h (4 Bft) 100,00 %
27.12.2020 12:52 5,3 C 3,3 C 0,5 C 88 % 984,2 hPa 0,0 l/m 0 min 2 min 12 W/m 54,7 km/h (7 Bft) 97,96 %
27.12.2020 12:54 5,2 C 3,3 C 0,5 C 88 % 984,2 hPa 0,0 l/m 0 min 2 min 12 W/m 35,4 km/h (5 Bft) 100,00 %
27.12.2020 12:56 5,2 C 3,3 C 0,5 C 89 % 984,1 hPa 0,2 l/m 0 min 2 min 12 W/m 48,3 km/h (6 Bft) 100,00 %
27.12.2020 12:58 5,2 C 3,3 C 1,1 C 89 % 984,1 hPa 0,2 l/m 0 min 2 min 12 W/m 35,4 km/h (5 Bft) 97,37 %
27.12.2020 13:00 5,1 C 3,3 C 1,1 C 89 % 984,0 hPa 0,0 l/m 0 min 2 min 12 W/m 29,0 km/h (5 Bft) 100,00 %
27.12.2020 13:02 5,1 C 3,3 C 1,1 C 89 % 983,9 hPa 0,0 l/m 0 min 2 min 13 W/m 16,1 km/h (3 Bft) 98,21 %
27.12.2020 13:04 5,1 C 3,3 C 1,1 C 89 % 983,8 hPa 0,0 l/m 0 min 2 min 13 W/m 29,0 km/h (5 Bft) 100,00 %
27.12.2020 13:06 5,1 C 3,3 C 1,1 C 89 % 983,8 hPa 0,2 l/m 0 min 2 min 12 W/m 51,5 km/h (7 Bft) 100,00 %
27.12.2020 13:08 5,1 C 3,3 C 1,1 C 89 % 983,5 hPa 0,0 l/m 0 min 2 min 14 W/m 32,2 km/h (5 Bft) 100,00 %
27.12.2020 13:10 5,1 C 3,3 C 1,1 C 89 % 983,5 hPa 0,2 l/m 0 min 2 min 13 W/m 22,5 km/h (4 Bft) 100,00 %
27.12.2020 13:12 5,0 C 3,3 C 1,1 C 90 % 983,5 hPa 0,0 l/m 0 min 2 min 14 W/m 48,3 km/h (6 Bft) 100,00 %
27.12.2020 13:14 5,0 C 3,3 C 0,5 C 90 % 983,2 hPa 0,0 l/m 0 min 2 min 16 W/m 48,3 km/h (6 Bft) 100,00 %
27.12.2020 13:16 5,0 C 3,3 C 0,5 C 90 % 983,4 hPa 0,0 l/m 0 min 2 min 13 W/m 38,6 km/h (5 Bft) 100,00 %
27.12.2020 13:18 5,0 C 3,3 C 1,1 C 90 % 983,4 hPa 0,2 l/m 0 min 2 min 14 W/m 41,8 km/h (6 Bft) 100,00 %
27.12.2020 13:20 5,0 C 3,3 C 1,1 C 90 % 983,3 hPa 0,2 l/m 0 min 2 min 14 W/m 45,1 km/h (6 Bft) 100,00 %
27.12.2020 13:22 5,0 C 3,3 C 1,1 C 90 % 983,1 hPa 0,0 l/m 0 min 2 min 15 W/m 41,8 km/h (6 Bft) 100,00 %
27.12.2020 13:24 5,0 C 3,3 C 1,1 C 90 % 983,1 hPa 0,0 l/m 0 min 2 min 14 W/m 48,3 km/h (6 Bft) 100,00 %
27.12.2020 13:26 5,0 C 3,3 C 1,1 C 90 % 983,1 hPa 0,0 l/m 0 min 2 min 17 W/m 32,2 km/h (5 Bft) 100,00 %
27.12.2020 13:28 5,0 C 3,3 C 1,1 C 90 % 983,0 hPa 0,2 l/m 0 min 2 min 16 W/m 48,3 km/h (6 Bft) 100,00 %
27.12.2020 13:30 5,0 C 3,3 C 1,1 C 90 % 982,8 hPa 0,0 l/m 0 min 2 min 13 W/m 38,6 km/h (5 Bft) 100,00 %
27.12.2020 13:32 5,0 C 3,3 C 1,1 C 90 % 982,9 hPa 0,0 l/m 0 min 2 min 13 W/m 38,6 km/h (5 Bft) 93,88 %
27.12.2020 13:34 5,0 C 3,3 C 1,1 C 90 % 982,8 hPa 0,2 l/m 0 min 2 min 12 W/m 25,7 km/h (4 Bft) 97,30 %
27.12.2020 13:36 4,9 C 3,3 C 1,1 C 90 % 982,8 hPa 0,0 l/m 0 min 2 min 12 W/m 35,4 km/h (5 Bft) 97,87 %
27.12.2020 13:38 4,9 C 3,3 C 1,1 C 90 % 982,8 hPa 0,0 l/m 0 min 2 min 13 W/m 29,0 km/h (5 Bft) 100,00 %
27.12.2020 13:40 4,9 C 3,3 C 1,1 C 90 % 982,7 hPa 0,2 l/m 0 min 2 min 12 W/m 45,1 km/h (6 Bft) 100,00 %
27.12.2020 13:42 4,9 C 3,3 C 1,1 C 90 % 982,6 hPa 0,0 l/m 0 min 2 min 12 W/m 35,4 km/h (5 Bft) 98,15 %
27.12.2020 13:44 4,9 C 3,3 C 1,1 C 91 % 982,6 hPa 0,2 l/m 0 min 2 min 12 W/m 35,4 km/h (5 Bft) 100,00 %
27.12.2020 13:46 4,9 C 3,3 C 1,1 C 91 % 982,4 hPa 0,0 l/m 0 min 2 min 12 W/m 41,8 km/h (6 Bft) 100,00 %
27.12.2020 13:48 4,9 C 3,3 C 1,1 C 91 % 982,4 hPa 0,0 l/m 0 min 2 min 11 W/m 32,2 km/h (5 Bft) 97,87 %
27.12.2020 13:50 4,9 C 3,3 C 1,1 C 91 % 982,2 hPa 0,0 l/m 0 min 2 min 12 W/m 32,2 km/h (5 Bft) 96,30 %
27.12.2020 13:52 4,8 C 3,3 C 1,1 C 91 % 982,2 hPa 0,2 l/m 0 min 2 min 14 W/m 25,7 km/h (4 Bft) 98,00 %
27.12.2020 13:54 4,9 C 3,3 C 1,1 C 91 % 982,2 hPa 0,0 l/m 0 min 2 min 14 W/m 32,2 km/h (5 Bft) 97,30 %
27.12.2020 13:56 4,9 C 3,3 C 1,1 C 91 % 982,3 hPa 0,2 l/m 0 min 2 min 15 W/m 61,2 km/h (7 Bft) 97,87 %
27.12.2020 13:58 4,9 C 3,3 C 1,1 C 91 % 982,0 hPa 0,0 l/m 0 min 2 min 14 W/m 32,2 km/h (5 Bft) 97,96 %
27.12.2020 14:00 4,9 C 3,3 C 1,1 C 91 % 982,0 hPa 0,0 l/m 0 min 2 min 15 W/m 41,8 km/h (6 Bft) 97,87 %
27.12.2020 14:02 4,9 C 3,3 C 1,1 C 91 % 981,9 hPa 0,0 l/m 0 min 2 min 16 W/m 51,5 km/h (7 Bft) 97,37 %
27.12.2020 14:04 4,9 C 3,3 C 1,1 C 91 % 981,7 hPa 0,0 l/m 0 min 2 min 14 W/m 35,4 km/h (5 Bft) 98,00 %
27.12.2020 14:06 4,9 C 3,3 C 1,1 C 91 % 981,8 hPa 0,2 l/m 0 min 2 min 13 W/m 25,7 km/h (4 Bft) 96,36 %
27.12.2020 14:08 4,9 C 3,3 C 1,1 C 91 % 981,7 hPa 0,0 l/m 0 min 2 min 14 W/m 19,3 km/h (3 Bft) 97,96 %
27.12.2020 14:10 4,9 C 3,3 C 1,1 C 91 % 981,8 hPa 0,0 l/m 0 min 2 min 13 W/m 3,2 km/h (1 Bft) 95,74 %
27.12.2020 14:12 4,8 C 3,3 C 1,1 C 91 % 981,7 hPa 0,0 l/m 0 min 2 min 12 W/m 48,3 km/h (6 Bft) 100,00 %
27.12.2020 14:14 4,8 C 3,3 C 1,1 C 91 % 981,5 hPa 0,0 l/m 0 min 0 min 15 W/m 38,6 km/h (5 Bft) 97,87 %
27.12.2020 14:16 4,8 C 3,3 C 1,1 C 91 % 981,6 hPa 0,0 l/m 0 min 2 min 12 W/m 29,0 km/h (5 Bft) 96,30 %
27.12.2020 14:18 4,8 C 3,3 C 1,1 C 91 % 981,6 hPa 0,0 l/m 0 min 2 min 11 W/m 35,4 km/h (5 Bft) 97,96 %
27.12.2020 14:20 4,8 C 3,3 C 1,1 C 91 % 981,4 hPa 0,2 l/m 0 min 2 min 14 W/m 22,5 km/h (4 Bft) 97,96 %
27.12.2020 14:22 4,8 C 3,3 C 1,1 C 91 % 981,4 hPa 0,0 l/m 0 min 2 min 14 W/m 16,1 km/h (3 Bft) 97,14 %
27.12.2020 14:24 4,8 C 3,3 C 1,1 C 91 % 981,4 hPa 0,0 l/m 0 min 0 min 14 W/m 29,0 km/h (5 Bft) 98,15 %
27.12.2020 14:26 4,8 C 3,3 C 1,1 C 91 % 981,4 hPa 0,0 l/m 0 min 0 min 16 W/m 32,2 km/h (5 Bft) 96,00 %
27.12.2020 14:28 4,8 C 3,3 C 1,1 C 91 % 981,5 hPa 0,0 l/m 0 min 0 min 12 W/m 29,0 km/h (5 Bft) 97,96 %
27.12.2020 14:30 4,8 C 3,3 C 1,1 C 91 % 981,3 hPa 0,0 l/m 0 min 0 min 15 W/m 25,7 km/h (4 Bft) 97,14 %
27.12.2020 14:32 4,8 C 3,3 C 1,1 C 91 % 981,3 hPa 0,0 l/m 0 min 0 min 14 W/m 32,2 km/h (5 Bft) 96,23 %
27.12.2020 14:34 4,8 C 3,3 C 1,1 C 91 % 981,3 hPa 0,0 l/m 0 min 0 min 13 W/m 29,0 km/h (5 Bft) 98,00 %
27.12.2020 14:36 4,9 C 3,9 C 1,1 C 91 % 981,2 hPa 0,0 l/m 0 min 0 min 15 W/m 48,3 km/h (6 Bft) 97,96 %
27.12.2020 14:38 4,9 C 3,9 C 1,1 C 91 % 981,3 hPa 0,0 l/m 0 min 2 min 14 W/m 29,0 km/h (5 Bft) 100,00 %
27.12.2020 14:40 4,9 C 3,9 C 1,1 C 91 % 981,2 hPa 0,0 l/m 0 min 2 min 14 W/m 45,1 km/h (6 Bft) 100,00 %
27.12.2020 14:42 4,9 C 3,9 C 1,1 C 91 % 981,2 hPa 0,0 l/m 0 min 2 min 14 W/m 35,4 km/h (5 Bft) 98,11 %
27.12.2020 14:44 4,9 C 3,9 C 1,1 C 91 % 981,0 hPa 0,0 l/m 0 min 2 min 14 W/m 41,8 km/h (6 Bft) 100,00 %
27.12.2020 14:46 5,0 C 3,9 C 1,1 C 91 % 981,0 hPa 0,0 l/m 0 min 2 min 14 W/m 25,7 km/h (4 Bft) 95,92 %
27.12.2020 14:48 5,0 C 3,9 C 1,1 C 91 % 981,0 hPa 0,0 l/m 0 min 2 min 12 W/m 35,4 km/h (5 Bft) 100,00 %
27.12.2020 14:50 5,0 C 3,9 C 1,1 C 91 % 981,1 hPa 0,0 l/m 0 min 2 min 12 W/m 70,8 km/h (8 Bft) 96,30 %
27.12.2020 14:52 5,0 C 3,3 C 1,1 C 90 % 981,0 hPa 0,0 l/m 0 min 2 min 12 W/m 25,7 km/h (4 Bft) 98,00 %
27.12.2020 14:54 5,0 C 3,3 C 1,1 C 90 % 980,9 hPa 0,0 l/m 0 min 2 min 14 W/m 45,1 km/h (6 Bft) 95,83 %
27.12.2020 14:56 5,0 C 3,9 C 1,1 C 90 % 980,9 hPa 0,0 l/m 0 min 2 min 14 W/m 32,2 km/h (5 Bft) 94,29 %
27.12.2020 14:58 5,0 C 3,9 C 1,1 C 90 % 980,8 hPa 0,0 l/m 0 min 2 min 14 W/m 54,7 km/h (7 Bft) 98,00 %
27.12.2020 15:00 5,1 C 3,9 C 1,1 C 90 % 980,8 hPa 0,0 l/m 0 min 2 min 14 W/m 48,3 km/h (6 Bft) 95,74 %
27.12.2020 15:02 5,1 C 3,9 C 1,1 C 90 % 980,7 hPa 0,0 l/m 0 min 2 min 13 W/m 29,0 km/h (5 Bft) 98,00 %
27.12.2020 15:04 5,1 C 3,9 C 1,1 C 90 % 980,7 hPa 0,0 l/m 0 min 2 min 13 W/m 38,6 km/h (5 Bft) 98,00 %
27.12.2020 15:06 5,1 C 3,9 C 1,1 C 90 % 980,6 hPa 0,0 l/m 0 min 2 min 14 W/m 32,2 km/h (5 Bft) 97,14 %
27.12.2020 15:08 5,1 C 3,9 C 1,1 C 90 % 980,5 hPa 0,0 l/m 0 min 2 min 12 W/m 29,0 km/h (5 Bft) 96,30 %
27.12.2020 15:10 5,1 C 3,9 C 1,1 C 90 % 980,5 hPa 0,0 l/m 0 min 2 min 12 W/m 38,6 km/h (5 Bft) 97,87 %
27.12.2020 15:12 5,1 C 3,9 C 1,6 C 89 % 980,5 hPa 0,0 l/m 0 min 2 min 12 W/m 48,3 km/h (6 Bft) 98,00 %
27.12.2020 15:14 5,1 C 3,9 C 1,6 C 89 % 980,4 hPa 0,0 l/m 0 min 2 min 12 W/m 22,5 km/h (4 Bft) 97,92 %
27.12.2020 15:16 5,1 C 3,9 C 1,6 C 89 % 980,5 hPa 0,0 l/m 0 min 2 min 12 W/m 35,4 km/h (5 Bft) 97,14 %
27.12.2020 15:18 5,2 C 3,9 C 1,6 C 89 % 980,4 hPa 0,0 l/m 0 min 2 min 11 W/m 38,6 km/h (5 Bft) 94,34 %
27.12.2020 15:20 5,2 C 3,9 C 1,6 C 89 % 980,5 hPa 0,0 l/m 0 min 2 min 11 W/m 32,2 km/h (5 Bft) 98,00 %
27.12.2020 15:22 5,3 C 3,9 C 1,6 C 89 % 980,5 hPa 0,0 l/m 0 min 2 min 10 W/m 29,0 km/h (5 Bft) 97,87 %
27.12.2020 15:24 5,3 C 4,4 C 1,6 C 89 % 980,4 hPa 0,0 l/m 0 min 0 min 9 W/m 51,5 km/h (7 Bft) 97,96 %
27.12.2020 15:26 5,3 C 4,4 C 1,6 C 88 % 980,5 hPa 0,0 l/m 0 min 2 min 11 W/m 48,3 km/h (6 Bft) 97,87 %
27.12.2020 15:28 5,3 C 3,9 C 1,6 C 88 % 980,4 hPa 0,0 l/m 0 min 2 min 10 W/m 35,4 km/h (5 Bft) 97,62 %
27.12.2020 15:30 5,3 C 3,9 C 1,6 C 88 % 980,4 hPa 0,0 l/m 0 min 2 min 11 W/m 35,4 km/h (5 Bft) 97,96 %
27.12.2020 15:32 5,3 C 3,9 C 1,6 C 88 % 980,4 hPa 0,0 l/m 0 min 0 min 11 W/m 29,0 km/h (5 Bft) 97,96 %
27.12.2020 15:34 5,3 C 4,4 C 1,6 C 88 % 980,4 hPa 0,0 l/m 0 min 0 min 9 W/m 41,8 km/h (6 Bft) 95,74 %
27.12.2020 15:36 5,3 C 4,4 C 1,6 C 88 % 980,3 hPa 0,0 l/m 0 min 2 min 9 W/m 48,3 km/h (6 Bft) 97,62 %
27.12.2020 15:38 5,4 C 4,4 C 1,6 C 88 % 980,3 hPa 0,0 l/m 0 min 0 min 7 W/m 19,3 km/h (3 Bft) 100,00 %
27.12.2020 15:40 5,4 C 3,9 C 1,6 C 88 % 980,3 hPa 0,0 l/m 0 min 2 min 7 W/m 25,7 km/h (4 Bft) 100,00 %
27.12.2020 15:42 5,4 C 3,9 C 1,6 C 88 % 980,2 hPa 0,0 l/m 0 min 2 min 7 W/m 25,7 km/h (4 Bft) 100,00 %
27.12.2020 15:44 5,4 C 3,9 C 1,6 C 88 % 980,2 hPa 0,0 l/m 0 min 2 min 7 W/m 25,7 km/h (4 Bft) 100,00 %
27.12.2020 15:46 5,4 C 3,9 C 1,6 C 88 % 980,2 hPa 0,0 l/m 0 min 0 min 5 W/m 22,5 km/h (4 Bft) 100,00 %
27.12.2020 15:48 5,4 C 3,9 C 1,6 C 88 % 980,1 hPa 0,0 l/m 0 min 0 min 5 W/m 29,0 km/h (5 Bft) 100,00 %
27.12.2020 15:50 5,4 C 3,9 C 1,6 C 88 % 980,2 hPa 0,0 l/m 0 min 0 min 5 W/m 25,7 km/h (4 Bft) 100,00 %
27.12.2020 15:52 5,4 C 3,9 C 1,6 C 88 % 980,2 hPa 0,0 l/m 0 min 0 min 3 W/m 25,7 km/h (4 Bft) 100,00 %
27.12.2020 15:54 5,3 C 3,9 C 1,6 C 88 % 980,1 hPa 0,0 l/m 0 min 0 min 0 W/m 3,2 km/h (1 Bft) 51,22 %
27.12.2020 15:56 5,3 C 3,9 C 1,6 C 88 % 980,0 hPa 0,0 l/m 0 min 0 min 0 W/m 3,2 km/h (1 Bft) 100,00 %
27.12.2020 15:58 5,3 C 3,9 C 1,6 C 88 % 980,0 hPa 0,0 l/m 0 min 0 min 0 W/m 32,2 km/h (5 Bft) 98,00 %
27.12.2020 16:00 5,3 C 3,9 C 1,6 C 88 % 980,0 hPa 0,0 l/m 0 min 0 min 0 W/m 25,7 km/h (4 Bft) 100,00 %
27.12.2020 16:02 5,3 C 3,9 C 1,6 C 88 % 979,9 hPa 0,0 l/m 0 min 0 min 0 W/m 6,4 km/h (2 Bft) 97,87 %
27.12.2020 16:04 5,3 C 4,4 C 1,6 C 88 % 979,9 hPa 0,0 l/m 0 min 0 min 0 W/m 6,4 km/h (2 Bft) 100,00 %
27.12.2020 16:06 5,3 C 4,4 C 1,6 C 88 % 980,0 hPa 0,0 l/m 0 min 0 min 0 W/m 22,5 km/h (4 Bft) 100,00 %
27.12.2020 16:08 5,3 C 4,4 C 1,6 C 88 % 979,9 hPa 0,0 l/m 0 min 0 min 0 W/m 25,7 km/h (4 Bft) 95,74 %
27.12.2020 16:10 5,3 C 4,4 C 1,6 C 88 % 979,8 hPa 0,0 l/m 0 min 0 min 0 W/m 19,3 km/h (3 Bft) 100,00 %
27.12.2020 16:12 5,3 C 4,4 C 1,6 C 88 % 979,7 hPa 0,0 l/m 0 min 0 min 0 W/m 16,1 km/h (3 Bft) 96,30 %
27.12.2020 16:14 5,3 C 4,4 C 1,6 C 88 % 979,8 hPa 0,0 l/m 0 min 0 min 0 W/m 16,1 km/h (3 Bft) 97,37 %
27.12.2020 16:16 5,3 C 5,0 C 1,6 C 88 % 979,7 hPa 0,0 l/m 0 min 0 min 0 W/m 32,2 km/h (5 Bft) 97,92 %
27.12.2020 16:18 5,3 C 5,0 C 1,6 C 88 % 979,8 hPa 0,0 l/m 0 min 0 min 0 W/m 22,5 km/h (4 Bft) 97,87 %
27.12.2020 16:20 5,3 C 4,4 C 1,6 C 88 % 979,7 hPa 0,0 l/m 0 min 0 min 0 W/m 3,2 km/h (1 Bft) 98,15 %
27.12.2020 16:22 5,3 C 5,0 C 1,6 C 88 % 979,6 hPa 0,0 l/m 0 min 0 min 0 W/m 19,3 km/h (3 Bft) 97,37 %
27.12.2020 16:24 5,3 C 5,0 C 1,6 C 88 % 979,6 hPa 0,0 l/m 0 min 0 min 0 W/m 32,2 km/h (5 Bft) 97,96 %
27.12.2020 16:26 5,3 C 5,0 C 1,6 C 88 % 979,5 hPa 0,0 l/m 0 min 0 min 0 W/m 19,3 km/h (3 Bft) 95,74 %
27.12.2020 16:28 5,3 C 5,0 C 1,6 C 87 % 979,5 hPa 0,0 l/m 0 min 0 min 0 W/m 22,5 km/h (4 Bft) 94,34 %
27.12.2020 16:30 5,3 C 5,0 C 1,6 C 87 % 979,5 hPa 0,0 l/m 0 min 0 min 0 W/m 29,0 km/h (5 Bft) 92,11 %
27.12.2020 16:32 5,3 C 5,0 C 1,6 C 87 % 979,4 hPa 0,0 l/m 0 min 0 min 0 W/m 6,4 km/h (2 Bft) 95,92 %
27.12.2020 16:34 5,3 C 5,0 C 1,6 C 87 % 979,3 hPa 0,0 l/m 0 min 0 min 0 W/m 25,7 km/h (4 Bft) 95,74 %
27.12.2020 16:36 5,3 C 5,0 C 1,6 C 87 % 979,4 hPa 0,0 l/m 0 min 0 min 0 W/m 29,0 km/h (5 Bft) 96,23 %
27.12.2020 16:38 5,3 C 4,4 C 1,6 C 87 % 979,4 hPa 0,0 l/m 0 min 2 min 0 W/m 19,3 km/h (3 Bft) 94,87 %
27.12.2020 16:40 5,3 C 4,4 C 1,6 C 87 % 979,3 hPa 0,0 l/m 0 min 2 min 0 W/m 6,4 km/h (2 Bft) 95,65 %
27.12.2020 16:42 5,3 C 4,4 C 1,6 C 87 % 979,2 hPa 0,0 l/m 0 min 2 min 0 W/m 12,9 km/h (3 Bft) 95,92 %
27.12.2020 16:44 5,3 C 4,4 C 1,6 C 87 % 979,3 hPa 0,0 l/m 0 min 2 min 0 W/m 3,2 km/h (1 Bft) 95,74 %
27.12.2020 16:46 5,3 C 3,9 C 1,6 C 87 % 979,2 hPa 0,0 l/m 0 min 2 min 0 W/m 9,7 km/h (2 Bft) 94,44 %
27.12.2020 16:48 5,3 C 3,9 C 1,6 C 87 % 979,2 hPa 0,0 l/m 0 min 2 min 0 W/m 22,5 km/h (4 Bft) 94,74 %
27.12.2020 16:50 5,4 C 4,4 C 1,6 C 87 % 979,1 hPa 0,0 l/m 0 min 2 min 0 W/m 3,2 km/h (1 Bft) 95,92 %
27.12.2020 16:52 5,3 C 4,4 C 1,6 C 87 % 979,1 hPa 0,0 l/m 0 min 2 min 0 W/m 12,9 km/h (3 Bft) 97,83 %
27.12.2020 16:54 5,4 C 4,4 C 1,6 C 87 % 979,0 hPa 0,0 l/m 0 min 2 min 0 W/m 29,0 km/h (5 Bft) 97,67 %
27.12.2020 16:56 5,4 C 4,4 C 1,6 C 87 % 979,0 hPa 0,0 l/m 0 min 2 min 0 W/m 32,2 km/h (5 Bft) 94,12 %
27.12.2020 16:58 5,4 C 4,4 C 1,6 C 87 % 979,0 hPa 0,0 l/m 0 min 2 min 0 W/m 12,9 km/h (3 Bft) 94,00 %
27.12.2020 17:00 5,4 C 4,4 C 1,6 C 87 % 979,0 hPa 0,0 l/m 0 min 2 min 0 W/m 0,0 km/h (0 Bft) 39,39 %
27.12.2020 17:02 5,4 C 4,4 C 1,6 C 87 % 978,9 hPa 0,0 l/m 0 min 2 min 0 W/m 3,2 km/h (1 Bft) 97,06 %
27.12.2020 17:04 5,5 C 4,4 C 1,6 C 87 % 978,9 hPa 0,0 l/m 0 min 2 min 0 W/m 19,3 km/h (3 Bft) 97,83 %
27.12.2020 17:06 5,5 C 4,4 C 1,6 C 87 % 978,8 hPa 0,0 l/m 0 min 2 min 0 W/m 25,7 km/h (4 Bft) 96,23 %
27.12.2020 17:08 5,5 C 4,4 C 1,6 C 87 % 978,8 hPa 0,0 l/m 0 min 2 min 0 W/m 12,9 km/h (3 Bft) 100,00 %
27.12.2020 17:10 5,5 C 4,4 C 1,6 C 87 % 978,8 hPa 0,0 l/m 0 min 2 min 0 W/m 12,9 km/h (3 Bft) 97,87 %
27.12.2020 17:12 5,5 C 4,4 C 1,6 C 87 % 978,8 hPa 0,0 l/m 0 min 2 min 0 W/m 22,5 km/h (4 Bft) 92,11 %
27.12.2020 17:14 5,5 C 4,4 C 1,6 C 87 % 978,8 hPa 0,0 l/m 0 min 2 min 0 W/m 19,3 km/h (3 Bft) 97,87 %
27.12.2020 17:16 5,5 C 4,4 C 2,2 C 87 % 978,9 hPa 0,0 l/m 0 min 2 min 0 W/m 25,7 km/h (4 Bft) 96,36 %
27.12.2020 17:18 5,5 C 5,0 C 2,2 C 87 % 978,7 hPa 0,0 l/m 0 min 2 min 0 W/m 0,0 km/h (0 Bft) 97,87 %
27.12.2020 17:20 5,6 C 5,0 C 2,2 C 87 % 978,7 hPa 0,0 l/m 0 min 0 min 0 W/m 0,0 km/h (0 Bft) 97,37 %
27.12.2020 17:22 5,6 C 5,0 C 2,2 C 87 % 978,6 hPa 0,0 l/m 0 min 0 min 0 W/m 3,2 km/h (1 Bft) 97,87 %
27.12.2020 17:24 5,6 C 5,0 C 2,2 C 87 % 978,6 hPa 0,0 l/m 0 min 0 min 0 W/m 6,4 km/h (2 Bft) 98,18 %
27.12.2020 17:26 5,6 C 5,0 C 2,2 C 87 % 978,6 hPa 0,0 l/m 0 min 0 min 0 W/m 25,7 km/h (4 Bft) 97,37 %
27.12.2020 17:28 5,6 C 5,0 C 2,2 C 87 % 978,6 hPa 0,0 l/m 0 min 0 min 0 W/m 19,3 km/h (3 Bft) 97,87 %
27.12.2020 17:30 5,6 C 5,0 C 2,2 C 86 % 978,5 hPa 0,0 l/m 0 min 0 min 0 W/m 16,1 km/h (3 Bft) 94,64 %
27.12.2020 17:32 5,7 C 5,0 C 2,2 C 86 % 978,5 hPa 0,0 l/m 0 min 2 min 0 W/m 0,0 km/h (0 Bft) 97,37 %
27.12.2020 17:34 5,7 C 5,0 C 2,2 C 86 % 978,5 hPa 0,0 l/m 0 min 0 min 0 W/m 3,2 km/h (1 Bft) 97,87 %
27.12.2020 17:36 5,7 C 5,0 C 2,2 C 86 % 978,4 hPa 0,0 l/m 0 min 0 min 0 W/m 12,9 km/h (3 Bft) 98,18 %
27.12.2020 17:38 5,7 C 5,0 C 2,2 C 86 % 978,4 hPa 0,0 l/m 0 min 2 min 0 W/m 29,0 km/h (5 Bft) 97,87 %
27.12.2020 17:40 5,8 C 5,0 C 2,2 C 86 % 978,3 hPa 0,0 l/m 0 min 2 min 0 W/m 12,9 km/h (3 Bft) 95,74 %
27.12.2020 17:42 5,8 C 5,0 C 2,2 C 86 % 978,3 hPa 0,0 l/m 0 min 2 min 0 W/m 3,2 km/h (1 Bft) 98,00 %
27.12.2020 17:44 5,8 C 5,0 C 2,2 C 86 % 978,3 hPa 0,0 l/m 0 min 0 min 0 W/m 0,0 km/h (0 Bft) 100,00 %
27.12.2020 17:46 5,8 C 5,0 C 2,2 C 86 % 978,3 hPa 0,0 l/m 0 min 2 min 0 W/m 3,2 km/h (1 Bft) 96,23 %
27.12.2020 17:48 5,8 C 5,0 C 2,2 C 85 % 978,2 hPa 0,0 l/m 0 min 2 min 0 W/m 0,0 km/h (0 Bft) 97,96 %
27.12.2020 17:50 5,8 C 5,0 C 2,2 C 85 % 978,2 hPa 0,0 l/m 0 min 2 min 0 W/m 3,2 km/h (1 Bft) 94,74 %
27.12.2020 17:52 5,8 C 4,4 C 2,2 C 85 % 978,2 hPa 0,0 l/m 0 min 0 min 0 W/m 3,2 km/h (1 Bft) 95,74 %
27.12.2020 17:54 5,8 C 4,4 C 2,2 C 85 % 978,2 hPa 0,0 l/m 0 min 2 min 0 W/m 3,2 km/h (1 Bft) 96,43 %
27.12.2020 17:56 5,7 C 4,4 C 2,2 C 85 % 978,1 hPa 0,0 l/m 0 min 0 min 0 W/m 0,0 km/h (0 Bft) 97,37 %
27.12.2020 17:58 5,7 C 4,4 C 2,2 C 85 % 978,1 hPa 0,0 l/m 0 min 2 min 0 W/m 3,2 km/h (1 Bft) 96,00 %
27.12.2020 18:00 5,7 C 4,4 C 2,2 C 85 % 978,1 hPa 0,0 l/m 0 min 2 min 0 W/m 16,1 km/h (3 Bft) 97,83 %
27.12.2020 18:02 5,6 C 4,4 C 2,2 C 85 % 978,1 hPa 0,0 l/m 0 min 2 min 0 W/m 6,4 km/h (2 Bft) 97,37 %
27.12.2020 18:04 5,6 C 4,4 C 2,2 C 86 % 978,1 hPa 0,0 l/m 0 min 2 min 0 W/m 3,2 km/h (1 Bft) 98,21 %
27.12.2020 18:08 5,6 C 3,9 C 1,6 C 86 % 978,1 hPa 0,0 l/m 0 min 4 min 0 W/m 16,1 km/h (3 Bft) 96,91 %
27.12.2020 18:10 5,5 C 3,9 C 1,6 C 86 % 978,1 hPa 0,2 l/m 0 min 2 min 0 W/m 32,2 km/h (5 Bft) 97,37 %
27.12.2020 18:12 5,5 C 3,9 C 1,6 C 86 % 978,1 hPa 0,0 l/m 0 min 2 min 0 W/m 19,3 km/h (3 Bft) 95,74 %
27.12.2020 18:14 5,5 C 3,9 C 1,6 C 86 % 978,0 hPa 0,0 l/m 0 min 2 min 0 W/m 16,1 km/h (3 Bft) 97,83 %
27.12.2020 18:16 5,5 C 3,9 C 1,6 C 87 % 978,0 hPa 0,0 l/m 0 min 2 min 0 W/m 25,7 km/h (4 Bft) 96,43 %
27.12.2020 18:18 5,4 C 3,3 C 1,6 C 87 % 978,0 hPa 0,0 l/m 0 min 2 min 0 W/m 22,5 km/h (4 Bft) 95,74 %
27.12.2020 18:20 5,4 C 3,3 C 1,6 C 87 % 978,0 hPa 0,0 l/m 0 min 2 min 0 W/m 3,2 km/h (1 Bft) 97,87 %
27.12.2020 18:22 5,4 C 3,3 C 1,1 C 87 % 978,0 hPa 0,0 l/m 0 min 2 min 0 W/m 12,9 km/h (3 Bft) 94,74 %
27.12.2020 18:24 5,4 C 3,3 C 1,1 C 87 % 977,9 hPa 0,0 l/m 0 min 2 min 0 W/m 3,2 km/h (1 Bft) 97,83 %
27.12.2020 18:26 5,3 C 3,3 C 1,1 C 87 % 977,9 hPa 0,2 l/m 0 min 2 min 0 W/m 3,2 km/h (1 Bft) 92,86 %
27.12.2020 18:28 5,3 C 3,3 C 1,1 C 88 % 977,9 hPa 0,0 l/m 0 min 2 min 0 W/m 3,2 km/h (1 Bft) 95,74 %
27.12.2020 18:30 5,3 C 3,3 C 1,1 C 88 % 977,8 hPa 0,0 l/m 0 min 2 min 0 W/m 6,4 km/h (2 Bft) 97,87 %
27.12.2020 18:32 5,2 C 3,3 C 1,1 C 88 % 977,9 hPa 0,0 l/m 0 min 2 min 0 W/m 25,7 km/h (4 Bft) 96,00 %
27.12.2020 18:34 5,1 C 3,3 C 1,1 C 88 % 977,9 hPa 0,0 l/m 0 min 2 min 0 W/m 3,2 km/h (1 Bft) 93,48 %
27.12.2020 18:36 5,1 C 3,3 C 1,1 C 88 % 977,8 hPa 0,0 l/m 0 min 2 min 0 W/m 3,2 km/h (1 Bft) 95,74 %
27.12.2020 18:38 5,1 C 3,3 C 1,1 C 89 % 977,8 hPa 0,0 l/m 0 min 0 min 0 W/m 0,0 km/h (0 Bft) 91,43 %
27.12.2020 18:40 5,1 C 3,3 C 1,1 C 89 % 977,8 hPa 0,0 l/m 0 min 2 min 0 W/m 3,2 km/h (1 Bft) 95,74 %
27.12.2020 18:42 5,0 C 3,3 C 1,1 C 89 % 977,8 hPa 0,0 l/m 0 min 2 min 0 W/m 3,2 km/h (1 Bft) 96,30 %
27.12.2020 18:44 5,0 C 3,3 C 1,1 C 89 % 977,8 hPa 0,0 l/m 0 min 2 min 0 W/m 0,0 km/h (0 Bft) 98,00 %
27.12.2020 18:46 5,0 C 3,3 C 1,1 C 89 % 977,7 hPa 0,0 l/m 0 min 2 min 0 W/m 12,9 km/h (3 Bft) 97,92 %
27.12.2020 18:48 4,9 C 3,3 C 1,1 C 89 % 977,6 hPa 0,0 l/m 0 min 2 min 0 W/m 3,2 km/h (1 Bft) 97,87 %
27.12.2020 18:50 4,9 C 3,3 C 1,1 C 90 % 977,6 hPa 0,2 l/m 0 min 2 min 0 W/m 12,9 km/h (3 Bft) 97,87 %
27.12.2020 18:52 4,9 C 3,3 C 1,1 C 90 % 977,5 hPa 0,0 l/m 0 min 2 min 0 W/m 3,2 km/h (1 Bft) 97,87 %
27.12.2020 18:54 4,8 C 2,8 C 1,1 C 90 % 977,5 hPa 0,0 l/m 0 min 2 min 0 W/m 19,3 km/h (3 Bft) 97,87 %
27.12.2020 18:56 4,8 C 2,8 C 1,1 C 90 % 977,4 hPa 0,0 l/m 0 min 2 min 0 W/m 3,2 km/h (1 Bft) 97,83 %
27.12.2020 18:58 4,8 C 2,8 C 1,1 C 90 % 977,4 hPa 0,0 l/m 0 min 2 min 0 W/m 0,0 km/h (0 Bft) 95,74 %
27.12.2020 19:00 4,8 C 2,8 C 1,1 C 90 % 977,4 hPa 0,0 l/m 0 min 2 min 0 W/m 19,3 km/h (3 Bft) 97,22 %
27.12.2020 19:02 4,8 C 2,8 C 1,1 C 90 % 977,4 hPa 0,2 l/m 0 min 2 min 0 W/m 0,0 km/h (0 Bft) 96,55 %
27.12.2020 19:04 4,8 C 2,8 C 1,1 C 91 % 977,3 hPa 0,0 l/m 0 min 2 min 0 W/m 0,0 km/h (0 Bft) 97,87 %
27.12.2020 19:06 4,7 C 2,8 C 1,1 C 91 % 977,3 hPa 0,0 l/m 0 min 2 min 0 W/m 3,2 km/h (1 Bft) 97,87 %
27.12.2020 19:08 4,7 C 2,8 C 1,1 C 91 % 977,3 hPa 0,0 l/m 0 min 2 min 0 W/m 3,2 km/h (1 Bft) 97,83 %
27.12.2020 19:10 4,7 C 2,8 C 1,1 C 91 % 977,3 hPa 0,0 l/m 0 min 2 min 0 W/m 0,0 km/h (0 Bft) 97,87 %
27.12.2020 19:12 4,6 C 2,8 C 1,1 C 91 % 977,3 hPa 0,0 l/m 0 min 2 min 0 W/m 3,2 km/h (1 Bft) 100,00 %
27.12.2020 19:14 4,6 C 2,8 C 1,1 C 91 % 977,3 hPa 0,0 l/m 0 min 2 min 0 W/m 0,0 km/h (0 Bft) 97,14 %
27.12.2020 19:16 4,6 C 2,8 C 1,1 C 91 % 977,2 hPa 0,2 l/m 0 min 2 min 0 W/m 3,2 km/h (1 Bft) 100,00 %
27.12.2020 19:18 4,6 C 2,8 C 1,1 C 91 % 977,3 hPa 0,0 l/m 0 min 2 min 0 W/m 0,0 km/h (0 Bft) 100,00 %
27.12.2020 19:20 4,6 C 2,8 C 1,1 C 91 % 977,3 hPa 0,0 l/m 0 min 2 min 0 W/m 3,2 km/h (1 Bft) 100,00 %
27.12.2020 19:22 4,6 C 2,8 C 1,1 C 91 % 977,3 hPa 0,0 l/m 0 min 2 min 0 W/m 3,2 km/h (1 Bft) 100,00 %
27.12.2020 19:24 4,6 C 2,8 C 1,1 C 91 % 977,3 hPa 0,0 l/m 0 min 2 min 0 W/m 0,0 km/h (0 Bft) 100,00 %
27.12.2020 19:26 4,6 C 2,8 C 1,1 C 91 % 977,3 hPa 0,0 l/m 0 min 2 min 0 W/m 3,2 km/h (1 Bft) 98,31 %
27.12.2020 19:28 4,5 C 2,8 C 1,1 C 91 % 977,3 hPa 0,2 l/m 0 min 2 min 0 W/m 0,0 km/h (0 Bft) 100,00 %
27.12.2020 19:30 4,5 C 2,8 C 1,1 C 92 % 977,4 hPa 0,0 l/m 0 min 2 min 0 W/m 0,0 km/h (0 Bft) 100,00 %
27.12.2020 19:32 4,5 C 2,8 C 1,1 C 92 % 977,3 hPa 0,0 l/m 0 min 2 min 0 W/m 3,2 km/h (1 Bft) 100,00 %
27.12.2020 19:34 4,5 C 2,8 C 1,1 C 92 % 977,3 hPa 0,0 l/m 0 min 2 min 0 W/m 0,0 km/h (0 Bft) 100,00 %
27.12.2020 19:36 4,5 C 2,8 C 1,1 C 92 % 977,3 hPa 0,0 l/m 0 min 2 min 0 W/m 3,2 km/h (1 Bft) 100,00 %
27.12.2020 19:38 4,5 C 2,8 C 1,1 C 92 % 977,3 hPa 0,0 l/m 0 min 2 min 0 W/m 3,2 km/h (1 Bft) 97,87 %
27.12.2020 19:40 4,5 C 2,8 C 1,1 C 92 % 977,2 hPa 0,0 l/m 0 min 2 min 0 W/m 0,0 km/h (0 Bft) 100,00 %
27.12.2020 19:42 4,4 C 2,8 C 1,1 C 92 % 977,2 hPa 0,0 l/m 0 min 2 min 0 W/m 3,2 km/h (1 Bft) 100,00 %
27.12.2020 19:44 4,4 C 2,8 C 1,1 C 92 % 977,2 hPa 0,0 l/m 0 min 2 min 0 W/m 3,2 km/h (1 Bft) 100,00 %
27.12.2020 19:46 4,4 C 2,8 C 1,1 C 92 % 977,2 hPa 0,2 l/m 0 min 2 min 0 W/m 3,2 km/h (1 Bft) 97,83 %
27.12.2020 19:48 4,4 C 2,8 C 1,1 C 92 % 977,2 hPa 0,0 l/m 0 min 2 min 0 W/m 12,9 km/h (3 Bft) 100,00 %
27.12.2020 19:50 4,4 C 2,8 C 1,1 C 92 % 977,1 hPa 0,0 l/m 0 min 2 min 0 W/m 6,4 km/h (2 Bft) 97,87 %
27.12.2020 19:52 4,3 C 2,8 C 1,1 C 92 % 977,1 hPa 0,0 l/m 0 min 2 min 0 W/m 0,0 km/h (0 Bft) 100,00 %
27.12.2020 19:54 4,3 C 2,8 C 1,1 C 92 % 977,1 hPa 0,2 l/m 0 min 2 min 0 W/m 0,0 km/h (0 Bft) 100,00 %
27.12.2020 19:56 4,3 C 2,8 C 1,1 C 92 % 977,1 hPa 0,0 l/m 0 min 2 min 0 W/m 3,2 km/h (1 Bft) 100,00 %
27.12.2020 19:58 4,3 C 2,8 C 1,1 C 92 % 977,0 hPa 0,0 l/m 0 min 2 min 0 W/m 0,0 km/h (0 Bft) 100,00 %
27.12.2020 20:00 4,3 C 2,8 C 1,1 C 93 % 977,1 hPa 0,0 l/m 0 min 2 min 0 W/m 3,2 km/h (1 Bft) 97,83 %
27.12.2020 20:02 4,3 C 2,8 C 1,1 C 93 % 977,0 hPa 0,0 l/m 0 min 2 min 0 W/m 12,9 km/h (3 Bft) 100,00 %
27.12.2020 20:04 4,3 C 2,8 C 1,1 C 93 % 977,0 hPa 0,2 l/m 0 min 2 min 0 W/m 3,2 km/h (1 Bft) 100,00 %
27.12.2020 20:06 4,3 C 2,8 C 1,1 C 93 % 977,0 hPa 0,0 l/m 0 min 2 min 0 W/m 3,2 km/h (1 Bft) 100,00 %
27.12.2020 20:08 4,3 C 2,8 C 1,1 C 93 % 977,0 hPa 0,2 l/m 0 min 2 min 0 W/m 0,0 km/h (0 Bft) 100,00 %
27.12.2020 20:10 4,3 C 2,8 C 1,1 C 93 % 977,1 hPa 0,0 l/m 0 min 2 min 0 W/m 3,2 km/h (1 Bft) 100,00 %
27.12.2020 20:12 4,3 C 2,8 C 1,1 C 93 % 977,1 hPa 0,0 l/m 0 min 2 min 0 W/m 12,9 km/h (3 Bft) 100,00 %
27.12.2020 20:14 4,2 C 2,8 C 1,1 C 93 % 977,0 hPa 0,0 l/m 0 min 2 min 0 W/m 0,0 km/h (0 Bft) 100,00 %
27.12.2020 20:16 4,2 C 2,8 C 1,1 C 93 % 977,0 hPa 0,2 l/m 0 min 2 min 0 W/m 0,0 km/h (0 Bft) 100,00 %
27.12.2020 20:18 4,2 C 2,8 C 1,1 C 93 % 976,9 hPa 0,0 l/m 0 min 2 min 0 W/m 3,2 km/h (1 Bft) 100,00 %
27.12.2020 20:20 4,2 C 2,8 C 1,1 C 93 % 976,9 hPa 0,2 l/m 0 min 2 min 0 W/m 3,2 km/h (1 Bft) 100,00 %
27.12.2020 20:22 4,2 C 2,8 C 1,1 C 93 % 976,8 hPa 0,0 l/m 0 min 2 min 0 W/m 0,0 km/h (0 Bft) 100,00 %
27.12.2020 20:24 4,1 C 2,8 C 1,1 C 93 % 976,9 hPa 0,0 l/m 0 min 2 min 0 W/m 0,0 km/h (0 Bft) 100,00 %
27.12.2020 20:26 4,1 C 2,8 C 1,1 C 93 % 977,0 hPa 0,0 l/m 0 min 2 min 0 W/m 6,4 km/h (2 Bft) 100,00 %
27.12.2020 20:28 4,1 C 2,8 C 1,1 C 93 % 976,9 hPa 0,0 l/m 0 min 2 min 0 W/m 12,9 km/h (3 Bft) 100,00 %
27.12.2020 20:30 4,1 C 2,8 C 1,1 C 93 % 976,9 hPa 0,2 l/m 0 min 2 min 0 W/m 3,2 km/h (1 Bft) 97,83 %
27.12.2020 20:32 4,1 C 2,8 C 1,1 C 93 % 976,9 hPa 0,0 l/m 0 min 2 min 0 W/m 3,2 km/h (1 Bft) 97,87 %
27.12.2020 20:34 4,1 C 2,8 C 1,1 C 93 % 976,9 hPa 0,0 l/m 0 min 2 min 0 W/m 3,2 km/h (1 Bft) 97,87 %
27.12.2020 20:36 4,1 C 2,8 C 1,1 C 93 % 976,9 hPa 0,2 l/m 0 min 2 min 0 W/m 0,0 km/h (0 Bft) 97,87 %
27.12.2020 20:38 4,1 C 2,8 C 1,1 C 93 % 976,9 hPa 0,0 l/m 0 min 2 min 0 W/m 3,2 km/h (1 Bft) 100,00 %
27.12.2020 20:40 4,1 C 2,8 C 1,1 C 93 % 976,9 hPa 0,0 l/m 0 min 2 min 0 W/m 16,1 km/h (3 Bft) 100,00 %
27.12.2020 20:42 4,1 C 2,8 C 1,1 C 93 % 976,9 hPa 0,0 l/m 0 min 2 min 0 W/m 0,0 km/h (0 Bft) 100,00 %
27.12.2020 20:44 4,1 C 2,8 C 1,1 C 93 % 976,9 hPa 0,2 l/m 0 min 2 min 0 W/m 3,2 km/h (1 Bft) 97,87 %
27.12.2020 20:46 4,1 C 2,8 C 1,1 C 93 % 976,9 hPa 0,0 l/m 0 min 2 min 0 W/m 3,2 km/h (1 Bft) 100,00 %
27.12.2020 20:48 4,1 C 2,8 C 1,1 C 94 % 976,9 hPa 0,0 l/m 0 min 2 min 0 W/m 3,2 km/h (1 Bft) 95,74 %
27.12.2020 20:50 4,1 C 2,8 C 1,1 C 94 % 976,9 hPa 0,0 l/m 0 min 2 min 0 W/m 0,0 km/h (0 Bft) 100,00 %
27.12.2020 20:52 4,1 C 2,8 C 1,1 C 94 % 976,9 hPa 0,0 l/m 0 min 2 min 0 W/m 0,0 km/h (0 Bft) 95,74 %
27.12.2020 20:54 4,1 C 2,8 C 1,1 C 93 % 976,9 hPa 0,0 l/m 0 min 0 min 0 W/m 0,0 km/h (0 Bft) 91,30 %
27.12.2020 20:56 4,1 C 2,8 C 1,1 C 94 % 977,0 hPa 0,2 l/m 0 min 2 min 0 W/m 3,2 km/h (1 Bft) 95,74 %
27.12.2020 20:58 4,1 C 2,8 C 1,1 C 94 % 976,8 hPa 0,0 l/m 0 min 2 min 0 W/m 0,0 km/h (0 Bft) 95,74 %
27.12.2020 21:00 4,1 C 2,8 C 1,1 C 94 % 977,0 hPa 0,0 l/m 0 min 2 min 0 W/m 0,0 km/h (0 Bft) 95,74 %
27.12.2020 21:02 4,0 C 2,8 C 1,1 C 94 % 977,0 hPa 0,0 l/m 0 min 2 min 0 W/m 0,0 km/h (0 Bft) 94,29 %
27.12.2020 21:04 4,0 C 2,8 C 1,1 C 94 % 976,9 hPa 0,0 l/m 0 min 2 min 0 W/m 3,2 km/h (1 Bft) 95,74 %
27.12.2020 21:06 4,0 C 2,8 C 1,1 C 94 % 976,9 hPa 0,2 l/m 0 min 2 min 0 W/m 0,0 km/h (0 Bft) 93,62 %
27.12.2020 21:08 4,0 C 2,8 C 1,1 C 94 % 977,0 hPa 0,0 l/m 0 min 2 min 0 W/m 0,0 km/h (0 Bft) 96,55 %
27.12.2020 21:10 4,0 C 2,8 C 1,1 C 94 % 977,0 hPa 0,0 l/m 0 min 2 min 0 W/m 0,0 km/h (0 Bft) 94,29 %
27.12.2020 21:12 4,0 C 2,8 C 1,1 C 94 % 977,0 hPa 0,0 l/m 0 min 2 min 0 W/m 0,0 km/h (0 Bft) 97,87 %
27.12.2020 21:14 4,0 C 2,8 C 1,1 C 94 % 977,0 hPa 0,0 l/m 0 min 2 min 0 W/m 6,4 km/h (2 Bft) 95,74 %
27.12.2020 21:16 4,0 C 2,8 C 1,1 C 94 % 976,9 hPa 0,2 l/m 0 min 2 min 0 W/m 0,0 km/h (0 Bft) 95,74 %
27.12.2020 21:18 4,0 C 2,8 C 1,1 C 94 % 976,9 hPa 0,0 l/m 0 min 2 min 0 W/m 0,0 km/h (0 Bft) 95,74 %
27.12.2020 21:20 4,0 C 2,8 C 1,1 C 94 % 976,9 hPa 0,0 l/m 0 min 2 min 0 W/m 0,0 km/h (0 Bft) 93,62 %
27.12.2020 21:22 4,0 C 2,8 C 1,1 C 94 % 976,9 hPa 0,0 l/m 0 min 2 min 0 W/m 0,0 km/h (0 Bft) 95,65 %
27.12.2020 21:24 4,0 C 2,8 C 1,1 C 94 % 976,9 hPa 0,0 l/m 0 min 2 min 0 W/m 0,0 km/h (0 Bft) 91,49 %
27.12.2020 21:26 4,0 C 2,8 C 1,1 C 94 % 976,9 hPa 0,2 l/m 0 min 2 min 0 W/m 0,0 km/h (0 Bft) 93,62 %
27.12.2020 21:28 4,0 C 2,8 C 1,1 C 94 % 976,9 hPa 0,0 l/m 0 min 2 min 0 W/m 0,0 km/h (0 Bft) 95,74 %
27.12.2020 21:30 4,0 C 2,8 C 1,1 C 94 % 977,0 hPa 0,0 l/m 0 min 2 min 0 W/m 0,0 km/h (0 Bft) 95,74 %
27.12.2020 21:32 4,0 C 2,8 C 1,1 C 94 % 976,9 hPa 0,0 l/m 0 min 2 min 0 W/m 0,0 km/h (0 Bft) 95,65 %
27.12.2020 21:34 4,0 C 2,8 C 1,1 C 94 % 977,0 hPa 0,0 l/m 0 min 2 min 0 W/m 0,0 km/h (0 Bft) 97,87 %
27.12.2020 21:36 4,0 C 2,8 C 1,1 C 94 % 977,0 hPa 0,0 l/m 0 min 2 min 0 W/m 0,0 km/h (0 Bft) 97,87 %
27.12.2020 21:38 4,0 C 2,8 C 1,1 C 94 % 976,9 hPa 0,2 l/m 0 min 2 min 0 W/m 0,0 km/h (0 Bft) 97,87 %
27.12.2020 21:40 4,0 C 2,8 C 1,1 C 95 % 977,0 hPa 0,0 l/m 0 min 2 min 0 W/m 12,9 km/h (3 Bft) 97,87 %
27.12.2020 21:42 4,0 C 2,8 C 1,1 C 95 % 976,9 hPa 0,0 l/m 0 min 2 min 0 W/m 0,0 km/h (0 Bft) 97,87 %
27.12.2020 21:44 4,0 C 2,8 C 1,1 C 94 % 976,9 hPa 0,0 l/m 0 min 2 min 0 W/m 6,4 km/h (2 Bft) 100,00 %
27.12.2020 21:46 4,0 C 2,8 C 1,1 C 94 % 976,9 hPa 0,0 l/m 0 min 2 min 0 W/m 0,0 km/h (0 Bft) 97,87 %
27.12.2020 21:48 4,0 C 2,8 C 1,1 C 95 % 976,9 hPa 0,2 l/m 0 min 2 min 0 W/m 0,0 km/h (0 Bft) 97,87 %
27.12.2020 21:50 4,0 C 2,8 C 1,1 C 95 % 977,0 hPa 0,0 l/m 0 min 2 min 0 W/m 0,0 km/h (0 Bft) 95,74 %
27.12.2020 21:52 4,0 C 2,8 C 1,1 C 95 % 977,0 hPa 0,0 l/m 0 min 2 min 0 W/m 0,0 km/h (0 Bft) 91,49 %
27.12.2020 21:54 4,0 C 2,8 C 1,1 C 95 % 977,1 hPa 0,0 l/m 0 min 2 min 0 W/m 22,5 km/h (4 Bft) 97,87 %
27.12.2020 21:56 4,0 C 2,8 C 1,1 C 95 % 977,1 hPa 0,0 l/m 0 min 2 min 0 W/m 0,0 km/h (0 Bft) 97,83 %
27.12.2020 21:58 4,1 C 2,8 C 1,1 C 95 % 977,0 hPa 0,0 l/m 0 min 2 min 0 W/m 12,9 km/h (3 Bft) 95,74 %
27.12.2020 22:00 4,1 C 2,8 C 1,1 C 95 % 977,1 hPa 0,2 l/m 0 min 2 min 0 W/m 29,0 km/h (5 Bft) 100,00 %
27.12.2020 22:02 4,1 C 2,8 C 1,1 C 95 % 977,2 hPa 0,0 l/m 0 min 2 min 0 W/m 25,7 km/h (4 Bft) 93,62 %
27.12.2020 22:04 4,1 C 2,8 C 1,1 C 95 % 977,2 hPa 0,0 l/m 0 min 2 min 0 W/m 0,0 km/h (0 Bft) 97,87 %
27.12.2020 22:06 4,2 C 2,8 C 1,1 C 95 % 977,2 hPa 0,0 l/m 0 min 2 min 0 W/m 0,0 km/h (0 Bft) 95,74 %
27.12.2020 22:08 4,2 C 3,3 C 1,1 C 95 % 977,2 hPa 0,0 l/m 0 min 2 min 0 W/m 0,0 km/h (0 Bft) 97,83 %
27.12.2020 22:10 4,2 C 2,8 C 1,1 C 95 % 977,2 hPa 0,0 l/m 0 min 2 min 0 W/m 0,0 km/h (0 Bft) 97,87 %
27.12.2020 22:12 4,2 C 3,3 C 1,6 C 95 % 977,1 hPa 0,0 l/m 0 min 2 min 0 W/m 0,0 km/h (0 Bft) 97,87 %
27.12.2020 22:14 4,2 C 3,3 C 1,1 C 95 % 977,3 hPa 0,0 l/m 0 min 2 min 0 W/m 3,2 km/h (1 Bft) 97,87 %
27.12.2020 22:16 4,3 C 3,3 C 1,6 C 95 % 977,3 hPa 0,0 l/m 0 min 2 min 0 W/m 3,2 km/h (1 Bft) 97,87 %
27.12.2020 22:18 4,3 C 2,8 C 1,1 C 95 % 977,3 hPa 0,2 l/m 0 min 2 min 0 W/m 12,9 km/h (3 Bft) 97,87 %
27.12.2020 22:20 4,3 C 2,8 C 1,1 C 95 % 977,4 hPa 0,0 l/m 0 min 2 min 0 W/m 9,7 km/h (2 Bft) 95,65 %
27.12.2020 22:22 4,3 C 2,8 C 1,1 C 94 % 977,3 hPa 0,0 l/m 0 min 2 min 0 W/m 35,4 km/h (5 Bft) 97,87 %
27.12.2020 22:24 4,3 C 2,8 C 1,1 C 94 % 977,3 hPa 0,0 l/m 0 min 2 min 0 W/m 29,0 km/h (5 Bft) 100,00 %
27.12.2020 22:26 4,3 C 2,8 C 1,1 C 94 % 977,3 hPa 0,0 l/m 0 min 2 min 0 W/m 0,0 km/h (0 Bft) 97,87 %
27.12.2020 22:28 4,3 C 2,8 C 1,1 C 94 % 977,3 hPa 0,0 l/m 0 min 2 min 0 W/m 0,0 km/h (0 Bft) 97,87 %
27.12.2020 22:30 4,3 C 2,8 C 1,1 C 94 % 977,2 hPa 0,2 l/m 0 min 2 min 0 W/m 6,4 km/h (2 Bft) 95,65 %
27.12.2020 22:32 4,3 C 2,8 C 1,1 C 94 % 977,2 hPa 0,0 l/m 0 min 0 min 0 W/m 0,0 km/h (0 Bft) 95,74 %
27.12.2020 22:34 4,3 C 2,8 C 1,1 C 94 % 977,2 hPa 0,0 l/m 0 min 0 min 0 W/m 19,3 km/h (3 Bft) 97,87 %
27.12.2020 22:36 4,3 C 2,8 C 1,1 C 94 % 977,2 hPa 0,0 l/m 0 min 0 min 0 W/m 12,9 km/h (3 Bft) 95,74 %
27.12.2020 22:38 4,3 C 2,8 C 1,6 C 94 % 977,3 hPa 0,0 l/m 0 min 2 min 0 W/m 12,9 km/h (3 Bft) 97,87 %
27.12.2020 22:40 4,3 C 2,8 C 1,6 C 94 % 977,2 hPa 0,0 l/m 0 min 2 min 0 W/m 9,7 km/h (2 Bft) 97,87 %
27.12.2020 22:42 4,3 C 2,8 C 1,6 C 94 % 977,2 hPa 0,0 l/m 0 min 0 min 0 W/m 3,2 km/h (1 Bft) 93,48 %
27.12.2020 22:44 4,3 C 2,8 C 1,6 C 94 % 977,3 hPa 0,0 l/m 0 min 0 min 0 W/m 6,4 km/h (2 Bft) 97,87 %
27.12.2020 22:46 4,3 C 3,3 C 1,6 C 94 % 977,2 hPa 0,0 l/m 0 min 2 min 0 W/m 9,7 km/h (2 Bft) 97,87 %
27.12.2020 22:48 4,3 C 3,3 C 1,6 C 94 % 977,3 hPa 0,0 l/m 0 min 0 min 0 W/m 0,0 km/h (0 Bft) 97,87 %
27.12.2020 22:50 4,3 C 3,3 C 1,6 C 94 % 977,2 hPa 0,0 l/m 0 min 0 min 0 W/m 6,4 km/h (2 Bft) 97,87 %
27.12.2020 22:52 4,3 C 3,3 C 1,6 C 94 % 977,3 hPa 0,0 l/m 0 min 0 min 0 W/m 0,0 km/h (0 Bft) 97,87 %
27.12.2020 22:54 4,3 C 3,3 C 1,6 C 94 % 977,3 hPa 0,0 l/m 0 min 0 min 0 W/m 0,0 km/h (0 Bft) 97,83 %
27.12.2020 22:56 4,3 C 3,3 C 1,6 C 94 % 977,2 hPa 0,0 l/m 0 min 0 min 0 W/m 0,0 km/h (0 Bft) 93,62 %
27.12.2020 22:58 4,3 C 3,3 C 1,6 C 94 % 977,2 hPa 0,0 l/m 0 min 0 min 0 W/m 0,0 km/h (0 Bft) 97,87 %
27.12.2020 23:00 4,3 C 3,3 C 1,6 C 94 % 977,2 hPa 0,0 l/m 0 min 0 min 0 W/m 0,0 km/h (0 Bft) 97,87 %
27.12.2020 23:02 4,3 C 3,3 C 1,6 C 94 % 977,3 hPa 0,0 l/m 0 min 0 min 0 W/m 3,2 km/h (1 Bft) 93,62 %
27.12.2020 23:04 4,3 C 3,3 C 1,6 C 94 % 977,2 hPa 0,0 l/m 0 min 0 min 0 W/m 6,4 km/h (2 Bft) 97,87 %
27.12.2020 23:06 4,3 C 3,3 C 1,6 C 94 % 977,2 hPa 0,0 l/m 0 min 0 min 0 W/m 0,0 km/h (0 Bft) 97,83 %
27.12.2020 23:08 4,3 C 3,3 C 1,6 C 94 % 977,2 hPa 0,0 l/m 0 min 0 min 0 W/m 0,0 km/h (0 Bft) 97,87 %
27.12.2020 23:10 4,3 C 3,3 C 1,6 C 94 % 977,3 hPa 0,0 l/m 0 min 0 min 0 W/m 3,2 km/h (1 Bft) 97,87 %
27.12.2020 23:12 4,3 C 3,3 C 1,6 C 94 % 977,3 hPa 0,0 l/m 0 min 0 min 0 W/m 3,2 km/h (1 Bft) 95,74 %
27.12.2020 23:14 4,3 C 3,3 C 1,6 C 94 % 977,3 hPa 0,0 l/m 0 min 0 min 0 W/m 0,0 km/h (0 Bft) 97,87 %
27.12.2020 23:16 4,3 C 3,3 C 1,6 C 94 % 977,3 hPa 0,0 l/m 0 min 0 min 0 W/m 0,0 km/h (0 Bft) 97,87 %
27.12.2020 23:18 4,3 C 3,3 C 1,6 C 94 % 977,3 hPa 0,0 l/m 0 min 0 min 0 W/m 3,2 km/h (1 Bft) 96,55 %
27.12.2020 23:20 4,3 C 3,3 C 1,6 C 94 % 977,3 hPa 0,0 l/m 0 min 0 min 0 W/m 0,0 km/h (0 Bft) 93,62 %
27.12.2020 23:22 4,3 C 3,3 C 1,6 C 94 % 977,3 hPa 0,0 l/m 0 min 0 min 0 W/m 0,0 km/h (0 Bft) 95,74 %
27.12.2020 23:24 4,3 C 3,3 C 1,6 C 94 % 977,3 hPa 0,0 l/m 0 min 0 min 0 W/m 0,0 km/h (0 Bft) 95,74 %
27.12.2020 23:26 4,3 C 3,3 C 1,6 C 94 % 977,3 hPa 0,0 l/m 0 min 0 min 0 W/m 6,4 km/h (2 Bft) 95,65 %
27.12.2020 23:28 4,3 C 3,3 C 1,6 C 94 % 977,3 hPa 0,0 l/m 0 min 0 min 0 W/m 0,0 km/h (0 Bft) 97,87 %
27.12.2020 23:30 4,3 C 3,3 C 1,6 C 94 % 977,4 hPa 0,0 l/m 0 min 0 min 0 W/m 0,0 km/h (0 Bft) 97,87 %
27.12.2020 23:32 4,3 C 3,3 C 1,6 C 94 % 977,4 hPa 0,0 l/m 0 min 0 min 0 W/m 0,0 km/h (0 Bft) 97,87 %
27.12.2020 23:34 4,3 C 3,3 C 1,6 C 94 % 977,5 hPa 0,0 l/m 0 min 0 min 0 W/m 12,9 km/h (3 Bft) 97,87 %
27.12.2020 23:36 4,3 C 3,3 C 1,6 C 94 % 977,4 hPa 0,0 l/m 0 min 0 min 0 W/m 6,4 km/h (2 Bft) 100,00 %
27.12.2020 23:38 4,3 C 3,3 C 1,6 C 94 % 977,4 hPa 0,0 l/m 0 min 0 min 0 W/m 0,0 km/h (0 Bft) 97,87 %
27.12.2020 23:40 4,3 C 3,3 C 1,6 C 94 % 977,4 hPa 0,0 l/m 0 min 0 min 0 W/m 0,0 km/h (0 Bft) 93,48 %
27.12.2020 23:42 4,3 C 3,3 C 1,6 C 94 % 977,4 hPa 0,0 l/m 0 min 0 min 0 W/m 12,9 km/h (3 Bft) 97,87 %
27.12.2020 23:44 4,3 C 3,3 C 1,6 C 94 % 977,3 hPa 0,0 l/m 0 min 0 min 0 W/m 22,5 km/h (4 Bft) 95,74 %
27.12.2020 23:46 4,3 C 3,3 C 1,6 C 94 % 977,3 hPa 0,0 l/m 0 min 0 min 0 W/m 0,0 km/h (0 Bft) 97,87 %
27.12.2020 23:48 4,3 C 3,3 C 1,6 C 94 % 977,3 hPa 0,0 l/m 0 min 0 min 0 W/m 0,0 km/h (0 Bft) 97,87 %
27.12.2020 23:50 4,3 C 3,3 C 1,6 C 94 % 977,3 hPa 0,0 l/m 0 min 0 min 0 W/m 0,0 km/h (0 Bft) 95,65 %
27.12.2020 23:52 4,3 C 3,3 C 1,6 C 94 % 977,2 hPa 0,0 l/m 0 min 0 min 0 W/m 3,2 km/h (1 Bft) 95,74 %
27.12.2020 23:54 4,3 C 3,3 C 1,6 C 94 % 977,2 hPa 0,0 l/m 0 min 0 min 0 W/m 0,0 km/h (0 Bft) 95,74 %
27.12.2020 23:56 4,3 C 3,3 C 1,6 C 94 % 977,1 hPa 0,0 l/m 0 min 0 min 0 W/m 0,0 km/h (0 Bft) 93,62 %
27.12.2020 23:58 4,3 C 3,3 C 1,6 C 94 % 977,1 hPa 0,0 l/m 0 min 0 min 0 W/m 0,0 km/h (0 Bft) 95,74 %
_ Min-Zeit 21:02 18:54 10:22 08:54 20:22 - - - - 17:00 17:00
Minimum _ 4,0 C 2,8 C 0,5 C 80 % 976,8 hPa - - - - 0,0 km/h (0 Bft) 39,39 %
_ Max-Zeit 09:28 09:28 08:12 21:40 00:00 10:22 00:00 12:08 11:34 14:50 01:26
Maximum _ 6,4 C 6,1 C 2,7 C 95 % 1009,2 hPa 0,2 l/m 0 min 4 min 28 W/m 70,8 km/h
O-SO (8 Bft)
100,00 %
Durchschnitt _ 5,0 C 4,0 C 1,5 C 87 % 988,4 hPa #8,8 l/m #0 min. #11:10 h 14 W/m 27,0 km/h (4 Bft) 97,27 %
© 2020 W. Hausmann